Wetterdaten: Montag, 19.06.2023
Datum Zeit Temp. Aussen Temp. o. S. Temp +5cm Feuchte Auss Luftdruck Regen Sonnenschein Regendauer Solar Windben Empfang
19.06.2023 00:00 24,6 C 23,3 C 20,0 C 63 % 1010,3 hPa 0,0 l/m 0 min 0 min 0 W/m 41,8 km/h (6 Bft) 97,87 %
19.06.2023 00:02 24,6 C 23,3 C 20,0 C 63 % 1010,4 hPa 0,0 l/m 0 min 0 min 0 W/m 19,3 km/h (3 Bft) 97,56 %
19.06.2023 00:04 24,5 C 23,3 C 20,0 C 63 % 1010,2 hPa 0,0 l/m 0 min 0 min 0 W/m 48,3 km/h (6 Bft) 100,00 %
19.06.2023 00:08 24,3 C 22,8 C 20,0 C 65 % 1010,3 hPa 0,0 l/m 0 min 0 min 0 W/m 22,5 km/h (4 Bft) 100,00 %
19.06.2023 00:10 24,3 C 22,8 C 20,0 C 65 % 1010,1 hPa 0,0 l/m 0 min 0 min 0 W/m 22,5 km/h (4 Bft) 97,87 %
19.06.2023 00:12 24,2 C 22,8 C 20,0 C 65 % 1010,1 hPa 0,0 l/m 0 min 0 min 0 W/m 16,1 km/h (3 Bft) 93,62 %
19.06.2023 00:16 24,1 C 22,8 C 19,4 C 66 % 1009,9 hPa 0,0 l/m 0 min 0 min 0 W/m 22,5 km/h (4 Bft) 97,12 %
19.06.2023 00:18 24,1 C 22,8 C 19,4 C 66 % 1009,7 hPa 0,0 l/m 0 min 0 min 0 W/m 6,4 km/h (2 Bft) 97,87 %
19.06.2023 00:20 24,0 C 22,8 C 19,4 C 67 % 1009,7 hPa 0,0 l/m 0 min 0 min 0 W/m 12,9 km/h (3 Bft) 97,87 %
19.06.2023 00:22 24,0 C 22,8 C 19,4 C 67 % 1009,7 hPa 0,0 l/m 0 min 0 min 0 W/m 12,9 km/h (3 Bft) 97,92 %
19.06.2023 00:24 23,9 C 22,8 C 19,4 C 67 % 1009,7 hPa 0,0 l/m 0 min 0 min 0 W/m 19,3 km/h (3 Bft) 97,87 %
19.06.2023 00:26 23,9 C 22,8 C 19,4 C 67 % 1009,6 hPa 0,0 l/m 0 min 0 min 0 W/m 12,9 km/h (3 Bft) 97,14 %
19.06.2023 00:28 23,9 C 22,8 C 19,4 C 67 % 1009,6 hPa 0,0 l/m 0 min 0 min 0 W/m 22,5 km/h (4 Bft) 98,21 %
19.06.2023 00:30 23,8 C 22,8 C 19,4 C 67 % 1009,6 hPa 0,0 l/m 0 min 0 min 0 W/m 22,5 km/h (4 Bft) 97,96 %
19.06.2023 00:32 23,8 C 22,8 C 19,4 C 67 % 1009,5 hPa 0,0 l/m 0 min 0 min 0 W/m 25,7 km/h (4 Bft) 97,92 %
19.06.2023 00:34 23,8 C 22,8 C 19,4 C 67 % 1009,5 hPa 0,0 l/m 0 min 0 min 0 W/m 12,9 km/h (3 Bft) 94,29 %
19.06.2023 00:36 23,8 C 22,8 C 19,4 C 67 % 1009,5 hPa 0,0 l/m 0 min 0 min 0 W/m 16,1 km/h (3 Bft) 97,87 %
19.06.2023 00:38 23,7 C 22,8 C 19,4 C 67 % 1009,4 hPa 0,0 l/m 0 min 0 min 0 W/m 16,1 km/h (3 Bft) 95,74 %
19.06.2023 00:40 23,7 C 22,8 C 19,4 C 67 % 1009,4 hPa 0,0 l/m 0 min 0 min 0 W/m 19,3 km/h (3 Bft) 98,15 %
19.06.2023 00:42 23,7 C 22,8 C 19,4 C 66 % 1009,4 hPa 0,0 l/m 0 min 0 min 0 W/m 12,9 km/h (3 Bft) 96,00 %
19.06.2023 00:44 23,7 C 22,8 C 19,4 C 66 % 1009,3 hPa 0,0 l/m 0 min 0 min 0 W/m 16,1 km/h (3 Bft) 100,00 %
19.06.2023 00:46 23,7 C 22,8 C 19,4 C 66 % 1009,3 hPa 0,0 l/m 0 min 0 min 0 W/m 12,9 km/h (3 Bft) 95,74 %
19.06.2023 00:48 23,7 C 22,8 C 19,4 C 66 % 1009,2 hPa 0,0 l/m 0 min 0 min 0 W/m 12,9 km/h (3 Bft) 97,87 %
19.06.2023 00:50 23,6 C 22,8 C 19,4 C 66 % 1009,2 hPa 0,0 l/m 0 min 0 min 0 W/m 12,9 km/h (3 Bft) 97,87 %
19.06.2023 00:52 23,6 C 22,8 C 19,4 C 66 % 1009,2 hPa 0,0 l/m 0 min 0 min 0 W/m 12,9 km/h (3 Bft) 97,87 %
19.06.2023 00:54 23,6 C 22,2 C 18,9 C 67 % 1009,2 hPa 0,0 l/m 0 min 0 min 0 W/m 12,9 km/h (3 Bft) 95,65 %
19.06.2023 00:56 23,6 C 22,2 C 18,9 C 67 % 1009,2 hPa 0,0 l/m 0 min 0 min 0 W/m 6,4 km/h (2 Bft) 97,87 %
19.06.2023 00:58 23,6 C 22,2 C 18,9 C 68 % 1009,2 hPa 0,0 l/m 0 min 0 min 0 W/m 12,9 km/h (3 Bft) 95,74 %
19.06.2023 01:00 23,5 C 22,2 C 18,9 C 68 % 1009,1 hPa 0,0 l/m 0 min 0 min 0 W/m 12,9 km/h (3 Bft) 97,87 %
19.06.2023 01:02 23,4 C 22,2 C 18,9 C 68 % 1009,1 hPa 0,0 l/m 0 min 0 min 0 W/m 9,7 km/h (2 Bft) 95,74 %
19.06.2023 01:04 23,4 C 21,7 C 18,9 C 69 % 1009,1 hPa 0,0 l/m 0 min 0 min 0 W/m 6,4 km/h (2 Bft) 100,00 %
19.06.2023 01:06 23,3 C 21,7 C 18,9 C 69 % 1009,2 hPa 0,0 l/m 0 min 0 min 0 W/m 6,4 km/h (2 Bft) 100,00 %
19.06.2023 01:08 23,3 C 21,7 C 18,9 C 69 % 1009,1 hPa 0,0 l/m 0 min 0 min 0 W/m 3,2 km/h (1 Bft) 100,00 %
19.06.2023 01:10 23,3 C 21,7 C 18,3 C 69 % 1009,2 hPa 0,0 l/m 0 min 0 min 0 W/m 12,9 km/h (3 Bft) 100,00 %
19.06.2023 01:12 23,2 C 21,7 C 18,3 C 70 % 1009,2 hPa 0,0 l/m 0 min 0 min 0 W/m 12,9 km/h (3 Bft) 97,87 %
19.06.2023 01:14 23,2 C 21,7 C 18,3 C 70 % 1009,2 hPa 0,0 l/m 0 min 0 min 0 W/m 6,4 km/h (2 Bft) 97,87 %
19.06.2023 01:16 23,1 C 21,7 C 18,3 C 70 % 1009,1 hPa 0,0 l/m 0 min 0 min 0 W/m 6,4 km/h (2 Bft) 97,87 %
19.06.2023 01:18 23,1 C 21,7 C 18,3 C 70 % 1009,1 hPa 0,0 l/m 0 min 0 min 0 W/m 12,9 km/h (3 Bft) 98,00 %
19.06.2023 01:20 23,1 C 21,7 C 18,3 C 70 % 1009,2 hPa 0,0 l/m 0 min 0 min 0 W/m 16,1 km/h (3 Bft) 97,87 %
19.06.2023 01:22 23,0 C 21,7 C 18,3 C 70 % 1009,2 hPa 0,0 l/m 0 min 0 min 0 W/m 6,4 km/h (2 Bft) 97,87 %
19.06.2023 01:24 22,9 C 21,7 C 18,3 C 70 % 1009,2 hPa 0,0 l/m 0 min 0 min 0 W/m 19,3 km/h (3 Bft) 97,83 %
19.06.2023 01:26 22,9 C 21,7 C 18,3 C 70 % 1009,3 hPa 0,0 l/m 0 min 0 min 0 W/m 12,9 km/h (3 Bft) 97,87 %
19.06.2023 01:28 22,8 C 21,7 C 18,3 C 71 % 1009,4 hPa 0,0 l/m 0 min 0 min 0 W/m 12,9 km/h (3 Bft) 97,87 %
19.06.2023 01:30 22,8 C 21,7 C 18,3 C 71 % 1009,4 hPa 0,0 l/m 0 min 0 min 0 W/m 6,4 km/h (2 Bft) 97,87 %
19.06.2023 01:32 22,8 C 21,1 C 18,3 C 71 % 1009,3 hPa 0,0 l/m 0 min 0 min 0 W/m 6,4 km/h (2 Bft) 95,74 %
19.06.2023 01:34 22,7 C 21,1 C 18,3 C 71 % 1009,3 hPa 0,0 l/m 0 min 0 min 0 W/m 3,2 km/h (1 Bft) 93,62 %
19.06.2023 01:36 22,7 C 21,1 C 18,3 C 71 % 1009,3 hPa 0,0 l/m 0 min 0 min 0 W/m 6,4 km/h (2 Bft) 93,48 %
19.06.2023 01:38 22,7 C 21,1 C 18,3 C 71 % 1009,3 hPa 0,0 l/m 0 min 0 min 0 W/m 6,4 km/h (2 Bft) 95,74 %
19.06.2023 01:40 22,6 C 21,1 C 18,3 C 71 % 1009,3 hPa 0,0 l/m 0 min 0 min 0 W/m 12,9 km/h (3 Bft) 95,74 %
19.06.2023 01:42 22,6 C 21,1 C 17,8 C 71 % 1009,3 hPa 0,0 l/m 0 min 0 min 0 W/m 9,7 km/h (2 Bft) 93,62 %
19.06.2023 01:44 22,6 C 21,1 C 17,8 C 71 % 1009,3 hPa 0,0 l/m 0 min 0 min 0 W/m 3,2 km/h (1 Bft) 95,74 %
19.06.2023 01:46 22,5 C 21,1 C 18,3 C 72 % 1009,3 hPa 0,0 l/m 0 min 0 min 0 W/m 12,9 km/h (3 Bft) 95,74 %
19.06.2023 01:48 22,4 C 21,1 C 17,8 C 72 % 1009,2 hPa 0,0 l/m 0 min 0 min 0 W/m 3,2 km/h (1 Bft) 97,87 %
19.06.2023 01:50 22,4 C 21,1 C 17,8 C 72 % 1009,2 hPa 0,0 l/m 0 min 0 min 0 W/m 6,4 km/h (2 Bft) 97,37 %
19.06.2023 01:52 22,4 C 21,1 C 17,8 C 72 % 1009,2 hPa 0,0 l/m 0 min 0 min 0 W/m 3,2 km/h (1 Bft) 92,59 %
19.06.2023 01:54 22,4 C 21,1 C 17,8 C 72 % 1009,2 hPa 0,0 l/m 0 min 0 min 0 W/m 3,2 km/h (1 Bft) 96,08 %
19.06.2023 01:56 22,4 C 21,1 C 17,8 C 72 % 1009,2 hPa 0,0 l/m 0 min 0 min 0 W/m 6,4 km/h (2 Bft) 97,14 %
19.06.2023 01:58 22,3 C 21,1 C 17,8 C 72 % 1009,2 hPa 0,0 l/m 0 min 0 min 0 W/m 3,2 km/h (1 Bft) 97,87 %
19.06.2023 02:00 22,3 C 21,1 C 17,8 C 72 % 1009,3 hPa 0,0 l/m 0 min 0 min 0 W/m 3,2 km/h (1 Bft) 98,00 %
19.06.2023 02:02 22,3 C 21,1 C 17,8 C 72 % 1009,3 hPa 0,0 l/m 0 min 0 min 0 W/m 9,7 km/h (2 Bft) 95,74 %
19.06.2023 02:04 22,3 C 21,1 C 17,8 C 72 % 1009,3 hPa 0,0 l/m 0 min 0 min 0 W/m 6,4 km/h (2 Bft) 97,96 %
19.06.2023 02:06 22,3 C 21,1 C 17,8 C 72 % 1009,3 hPa 0,0 l/m 0 min 0 min 0 W/m 3,2 km/h (1 Bft) 98,31 %
19.06.2023 02:08 22,3 C 21,1 C 17,8 C 72 % 1009,3 hPa 0,0 l/m 0 min 0 min 0 W/m 3,2 km/h (1 Bft) 97,14 %
19.06.2023 02:10 22,2 C 21,1 C 17,8 C 72 % 1009,3 hPa 0,0 l/m 0 min 0 min 0 W/m 3,2 km/h (1 Bft) 97,87 %
19.06.2023 02:12 22,2 C 21,1 C 17,8 C 72 % 1009,2 hPa 0,0 l/m 0 min 0 min 0 W/m 3,2 km/h (1 Bft) 97,87 %
19.06.2023 02:14 22,2 C 21,1 C 17,8 C 72 % 1009,2 hPa 0,0 l/m 0 min 0 min 0 W/m 3,2 km/h (1 Bft) 97,87 %
19.06.2023 02:16 22,2 C 20,6 C 17,8 C 72 % 1009,2 hPa 0,0 l/m 0 min 0 min 0 W/m 6,4 km/h (2 Bft) 97,87 %
19.06.2023 02:18 22,2 C 20,6 C 17,8 C 72 % 1009,3 hPa 0,0 l/m 0 min 0 min 0 W/m 6,4 km/h (2 Bft) 95,65 %
19.06.2023 02:20 22,1 C 20,6 C 17,8 C 73 % 1009,3 hPa 0,0 l/m 0 min 0 min 0 W/m 3,2 km/h (1 Bft) 97,92 %
19.06.2023 02:22 22,1 C 20,6 C 17,8 C 73 % 1009,3 hPa 0,0 l/m 0 min 0 min 0 W/m 6,4 km/h (2 Bft) 97,87 %
19.06.2023 02:24 22,1 C 20,6 C 17,8 C 73 % 1009,3 hPa 0,0 l/m 0 min 0 min 0 W/m 3,2 km/h (1 Bft) 100,00 %
19.06.2023 02:26 22,1 C 20,6 C 17,8 C 73 % 1009,3 hPa 0,0 l/m 0 min 0 min 0 W/m 3,2 km/h (1 Bft) 97,87 %
19.06.2023 02:28 22,1 C 20,6 C 17,8 C 73 % 1009,3 hPa 0,0 l/m 0 min 0 min 0 W/m 3,2 km/h (1 Bft) 100,00 %
19.06.2023 02:30 22,0 C 20,6 C 17,8 C 73 % 1009,3 hPa 0,0 l/m 0 min 0 min 0 W/m 6,4 km/h (2 Bft) 97,83 %
19.06.2023 02:32 22,0 C 20,6 C 17,8 C 73 % 1009,3 hPa 0,0 l/m 0 min 0 min 0 W/m 6,4 km/h (2 Bft) 100,00 %
19.06.2023 02:34 21,9 C 20,6 C 17,8 C 73 % 1009,4 hPa 0,0 l/m 0 min 0 min 0 W/m 6,4 km/h (2 Bft) 100,00 %
19.06.2023 02:36 21,9 C 20,6 C 17,8 C 73 % 1009,4 hPa 0,0 l/m 0 min 0 min 0 W/m 3,2 km/h (1 Bft) 100,00 %
19.06.2023 02:38 21,9 C 20,6 C 17,2 C 73 % 1009,4 hPa 0,0 l/m 0 min 0 min 0 W/m 3,2 km/h (1 Bft) 97,62 %
19.06.2023 02:40 21,8 C 20,6 C 17,2 C 74 % 1009,5 hPa 0,0 l/m 0 min 0 min 0 W/m 12,9 km/h (3 Bft) 100,00 %
19.06.2023 02:42 21,8 C 20,6 C 17,2 C 74 % 1009,4 hPa 0,0 l/m 0 min 0 min 0 W/m 3,2 km/h (1 Bft) 97,83 %
19.06.2023 02:44 21,8 C 20,6 C 17,2 C 74 % 1009,4 hPa 0,0 l/m 0 min 0 min 0 W/m 6,4 km/h (2 Bft) 100,00 %
19.06.2023 02:46 21,8 C 20,6 C 17,2 C 74 % 1009,4 hPa 0,0 l/m 0 min 0 min 0 W/m 3,2 km/h (1 Bft) 100,00 %
19.06.2023 02:48 21,8 C 20,6 C 17,2 C 74 % 1009,5 hPa 0,0 l/m 0 min 0 min 0 W/m 3,2 km/h (1 Bft) 100,00 %
19.06.2023 02:50 21,7 C 20,6 C 17,2 C 74 % 1009,4 hPa 0,0 l/m 0 min 0 min 0 W/m 3,2 km/h (1 Bft) 100,00 %
19.06.2023 02:52 21,7 C 20,6 C 17,2 C 74 % 1009,5 hPa 0,0 l/m 0 min 0 min 0 W/m 6,4 km/h (2 Bft) 100,00 %
19.06.2023 02:54 21,7 C 20,6 C 17,2 C 74 % 1009,5 hPa 0,0 l/m 0 min 0 min 0 W/m 6,4 km/h (2 Bft) 100,00 %
19.06.2023 02:56 21,7 C 20,6 C 17,2 C 74 % 1009,5 hPa 0,0 l/m 0 min 0 min 0 W/m 3,2 km/h (1 Bft) 93,75 %
19.06.2023 02:58 21,6 C 20,6 C 17,2 C 74 % 1009,5 hPa 0,0 l/m 0 min 0 min 0 W/m 6,4 km/h (2 Bft) 98,08 %
19.06.2023 03:00 21,6 C 20,6 C 17,2 C 74 % 1009,6 hPa 0,0 l/m 0 min 0 min 0 W/m 6,4 km/h (2 Bft) 100,00 %
19.06.2023 03:02 21,6 C 20,6 C 17,2 C 74 % 1009,6 hPa 0,0 l/m 0 min 0 min 0 W/m 6,4 km/h (2 Bft) 95,74 %
19.06.2023 03:04 21,6 C 20,6 C 17,2 C 74 % 1009,6 hPa 0,0 l/m 0 min 0 min 0 W/m 3,2 km/h (1 Bft) 95,74 %
19.06.2023 03:06 21,6 C 20,6 C 17,2 C 74 % 1009,5 hPa 0,0 l/m 0 min 0 min 0 W/m 3,2 km/h (1 Bft) 100,00 %
19.06.2023 03:08 21,5 C 20,6 C 17,2 C 74 % 1009,6 hPa 0,0 l/m 0 min 0 min 0 W/m 3,2 km/h (1 Bft) 97,87 %
19.06.2023 03:10 21,5 C 20,6 C 17,2 C 74 % 1009,5 hPa 0,0 l/m 0 min 0 min 0 W/m 3,2 km/h (1 Bft) 97,87 %
19.06.2023 03:12 21,5 C 20,0 C 17,2 C 74 % 1009,6 hPa 0,0 l/m 0 min 0 min 0 W/m 3,2 km/h (1 Bft) 95,74 %
19.06.2023 03:14 21,4 C 20,0 C 17,2 C 74 % 1009,6 hPa 0,0 l/m 0 min 0 min 0 W/m 3,2 km/h (1 Bft) 93,48 %
19.06.2023 03:16 21,4 C 20,0 C 17,2 C 74 % 1009,6 hPa 0,0 l/m 0 min 0 min 0 W/m 3,2 km/h (1 Bft) 93,62 %
19.06.2023 03:18 21,4 C 20,0 C 17,2 C 74 % 1009,5 hPa 0,0 l/m 0 min 0 min 0 W/m 6,4 km/h (2 Bft) 95,74 %
19.06.2023 03:20 21,4 C 20,0 C 17,2 C 75 % 1009,6 hPa 0,0 l/m 0 min 0 min 0 W/m 3,2 km/h (1 Bft) 95,74 %
19.06.2023 03:22 21,4 C 20,0 C 17,2 C 75 % 1009,5 hPa 0,0 l/m 0 min 0 min 0 W/m 3,2 km/h (1 Bft) 93,62 %
19.06.2023 03:24 21,3 C 20,0 C 17,2 C 75 % 1009,5 hPa 0,0 l/m 0 min 0 min 0 W/m 3,2 km/h (1 Bft) 96,00 %
19.06.2023 03:26 21,3 C 20,0 C 17,2 C 75 % 1009,5 hPa 0,0 l/m 0 min 0 min 0 W/m 3,2 km/h (1 Bft) 95,74 %
19.06.2023 03:28 21,3 C 20,0 C 16,7 C 75 % 1009,5 hPa 0,0 l/m 0 min 0 min 0 W/m 3,2 km/h (1 Bft) 95,74 %
19.06.2023 03:30 21,3 C 20,0 C 16,7 C 75 % 1009,6 hPa 0,0 l/m 0 min 0 min 0 W/m 6,4 km/h (2 Bft) 93,62 %
19.06.2023 03:32 21,2 C 20,0 C 16,7 C 75 % 1009,5 hPa 0,0 l/m 0 min 0 min 0 W/m 0,0 km/h (0 Bft) 95,74 %
19.06.2023 03:34 21,2 C 20,0 C 16,7 C 75 % 1009,5 hPa 0,0 l/m 0 min 0 min 0 W/m 0,0 km/h (0 Bft) 95,74 %
19.06.2023 03:36 21,2 C 20,0 C 16,7 C 75 % 1009,5 hPa 0,0 l/m 0 min 0 min 0 W/m 3,2 km/h (1 Bft) 95,74 %
19.06.2023 03:38 21,2 C 20,0 C 16,7 C 76 % 1009,5 hPa 0,0 l/m 0 min 0 min 0 W/m 3,2 km/h (1 Bft) 95,65 %
19.06.2023 03:40 21,1 C 20,0 C 16,7 C 76 % 1009,6 hPa 0,0 l/m 0 min 0 min 0 W/m 0,0 km/h (0 Bft) 95,74 %
19.06.2023 03:42 21,1 C 20,0 C 16,7 C 76 % 1009,5 hPa 0,0 l/m 0 min 0 min 0 W/m 3,2 km/h (1 Bft) 97,87 %
19.06.2023 03:44 21,1 C 20,0 C 16,7 C 76 % 1009,6 hPa 0,0 l/m 0 min 0 min 0 W/m 3,2 km/h (1 Bft) 97,87 %
19.06.2023 03:46 21,1 C 20,0 C 16,7 C 76 % 1009,5 hPa 0,0 l/m 0 min 0 min 0 W/m 0,0 km/h (0 Bft) 97,87 %
19.06.2023 03:48 21,1 C 20,0 C 16,7 C 76 % 1009,6 hPa 0,0 l/m 0 min 0 min 0 W/m 3,2 km/h (1 Bft) 97,87 %
19.06.2023 03:50 21,1 C 20,0 C 17,2 C 76 % 1009,6 hPa 0,0 l/m 0 min 0 min 0 W/m 3,2 km/h (1 Bft) 97,83 %
19.06.2023 03:52 21,1 C 20,0 C 17,2 C 76 % 1009,6 hPa 0,0 l/m 0 min 0 min 0 W/m 3,2 km/h (1 Bft) 98,25 %
19.06.2023 03:54 21,1 C 20,0 C 17,2 C 77 % 1009,7 hPa 0,0 l/m 0 min 0 min 0 W/m 6,4 km/h (2 Bft) 95,74 %
19.06.2023 03:56 21,1 C 20,0 C 17,2 C 76 % 1009,7 hPa 0,0 l/m 0 min 0 min 0 W/m 3,2 km/h (1 Bft) 97,87 %
19.06.2023 03:58 21,1 C 20,0 C 17,2 C 77 % 1009,7 hPa 0,0 l/m 0 min 0 min 0 W/m 3,2 km/h (1 Bft) 95,65 %
19.06.2023 04:00 21,1 C 20,0 C 17,2 C 77 % 1009,7 hPa 0,0 l/m 0 min 0 min 0 W/m 6,4 km/h (2 Bft) 100,00 %
19.06.2023 04:05 21,0 C 20,0 C 17,2 C 77 % 1009,8 hPa 0,0 l/m 0 min 0 min 0 W/m 3,2 km/h (1 Bft) 98,73 %
19.06.2023 04:06 21,0 C 20,0 C 17,2 C 77 % 1009,8 hPa 0,0 l/m 0 min 0 min 0 W/m 3,2 km/h (1 Bft) 100,00 %
19.06.2023 04:08 21,0 C 20,0 C 16,7 C 77 % 1009,8 hPa 0,0 l/m 0 min 0 min 0 W/m 6,4 km/h (2 Bft) 100,00 %
19.06.2023 04:10 21,0 C 20,0 C 16,7 C 77 % 1009,9 hPa 0,0 l/m 0 min 0 min 0 W/m 3,2 km/h (1 Bft) 97,87 %
19.06.2023 04:12 21,0 C 20,0 C 16,7 C 77 % 1009,9 hPa 0,0 l/m 0 min 0 min 0 W/m 3,2 km/h (1 Bft) 100,00 %
19.06.2023 04:14 20,9 C 20,0 C 16,7 C 77 % 1009,9 hPa 0,0 l/m 0 min 0 min 0 W/m 3,2 km/h (1 Bft) 100,00 %
19.06.2023 04:16 20,9 C 20,0 C 16,7 C 77 % 1010,0 hPa 0,0 l/m 0 min 0 min 0 W/m 9,7 km/h (2 Bft) 100,00 %
19.06.2023 04:18 20,9 C 20,0 C 16,7 C 77 % 1010,1 hPa 0,0 l/m 0 min 0 min 0 W/m 3,2 km/h (1 Bft) 100,00 %
19.06.2023 04:20 20,9 C 20,0 C 17,2 C 77 % 1010,1 hPa 0,0 l/m 0 min 0 min 0 W/m 6,4 km/h (2 Bft) 100,00 %
19.06.2023 04:22 20,9 C 20,0 C 17,2 C 77 % 1010,2 hPa 0,0 l/m 0 min 0 min 0 W/m 9,7 km/h (2 Bft) 97,87 %
19.06.2023 04:24 20,9 C 20,0 C 17,2 C 77 % 1010,2 hPa 0,0 l/m 0 min 0 min 0 W/m 9,7 km/h (2 Bft) 97,87 %
19.06.2023 04:26 20,9 C 20,0 C 17,2 C 77 % 1010,2 hPa 0,0 l/m 0 min 0 min 0 W/m 9,7 km/h (2 Bft) 97,87 %
19.06.2023 04:28 20,9 C 20,0 C 17,2 C 76 % 1010,2 hPa 0,0 l/m 0 min 0 min 0 W/m 6,4 km/h (2 Bft) 95,74 %
19.06.2023 04:30 20,9 C 20,0 C 17,2 C 76 % 1010,2 hPa 0,0 l/m 0 min 0 min 0 W/m 6,4 km/h (2 Bft) 97,87 %
19.06.2023 04:32 21,0 C 20,6 C 17,2 C 76 % 1010,3 hPa 0,0 l/m 0 min 0 min 0 W/m 19,3 km/h (3 Bft) 97,83 %
19.06.2023 04:34 21,1 C 20,6 C 17,2 C 76 % 1010,3 hPa 0,0 l/m 0 min 0 min 0 W/m 16,1 km/h (3 Bft) 97,87 %
19.06.2023 04:36 21,1 C 20,6 C 17,2 C 75 % 1010,3 hPa 0,0 l/m 0 min 0 min 0 W/m 16,1 km/h (3 Bft) 97,87 %
19.06.2023 04:38 21,1 C 20,6 C 17,2 C 75 % 1010,3 hPa 0,0 l/m 0 min 0 min 0 W/m 16,1 km/h (3 Bft) 97,87 %
19.06.2023 04:47 21,5 C 20,6 C 17,2 C 74 % 1010,4 hPa 0,0 l/m 0 min 0 min 0 W/m 25,7 km/h (4 Bft) 94,32 %
19.06.2023 04:50 21,6 C 20,6 C 17,2 C 74 % 1010,4 hPa 0,0 l/m 0 min 0 min 0 W/m 25,7 km/h (4 Bft) 96,55 %
19.06.2023 04:52 21,6 C 20,6 C 17,2 C 74 % 1010,5 hPa 0,0 l/m 0 min 0 min 0 W/m 22,5 km/h (4 Bft) 97,87 %
19.06.2023 04:54 21,6 C 20,6 C 17,2 C 74 % 1010,5 hPa 0,0 l/m 0 min 0 min 0 W/m 16,1 km/h (3 Bft) 97,87 %
19.06.2023 04:56 21,6 C 20,6 C 17,2 C 74 % 1010,5 hPa 0,0 l/m 0 min 0 min 0 W/m 12,9 km/h (3 Bft) 95,74 %
19.06.2023 04:58 21,6 C 20,6 C 17,2 C 74 % 1010,5 hPa 0,0 l/m 0 min 0 min 0 W/m 19,3 km/h (3 Bft) 93,62 %
19.06.2023 05:00 21,6 C 20,6 C 17,2 C 74 % 1010,5 hPa 0,0 l/m 0 min 0 min 0 W/m 12,9 km/h (3 Bft) 97,87 %
19.06.2023 05:02 21,6 C 20,6 C 17,2 C 74 % 1010,5 hPa 0,0 l/m 0 min 0 min 0 W/m 6,4 km/h (2 Bft) 95,65 %
19.06.2023 05:04 21,5 C 20,6 C 17,2 C 74 % 1010,5 hPa 0,0 l/m 0 min 0 min 0 W/m 12,9 km/h (3 Bft) 95,92 %
19.06.2023 05:06 21,4 C 20,6 C 17,2 C 75 % 1010,4 hPa 0,0 l/m 0 min 0 min 0 W/m 6,4 km/h (2 Bft) 96,61 %
19.06.2023 05:08 21,4 C 20,0 C 17,2 C 75 % 1010,4 hPa 0,0 l/m 0 min 0 min 0 W/m 12,9 km/h (3 Bft) 91,43 %
19.06.2023 05:10 21,4 C 20,0 C 17,2 C 75 % 1010,5 hPa 0,0 l/m 0 min 0 min 0 W/m 6,4 km/h (2 Bft) 97,87 %
19.06.2023 05:12 21,4 C 20,0 C 17,2 C 75 % 1010,5 hPa 0,0 l/m 0 min 0 min 0 W/m 12,9 km/h (3 Bft) 95,74 %
19.06.2023 05:14 21,3 C 20,0 C 17,2 C 75 % 1010,5 hPa 0,0 l/m 0 min 0 min 0 W/m 16,1 km/h (3 Bft) 97,83 %
19.06.2023 05:16 21,3 C 20,0 C 16,7 C 75 % 1010,5 hPa 0,0 l/m 0 min 0 min 0 W/m 9,7 km/h (2 Bft) 95,74 %
19.06.2023 05:18 21,3 C 20,0 C 16,7 C 76 % 1010,6 hPa 0,0 l/m 0 min 0 min 0 W/m 6,4 km/h (2 Bft) 97,87 %
19.06.2023 05:20 21,2 C 20,0 C 16,7 C 76 % 1010,6 hPa 0,0 l/m 0 min 0 min 0 W/m 6,4 km/h (2 Bft) 93,62 %
19.06.2023 05:22 21,2 C 20,0 C 16,7 C 76 % 1010,7 hPa 0,0 l/m 0 min 0 min 0 W/m 16,1 km/h (3 Bft) 95,74 %
19.06.2023 05:24 21,1 C 20,0 C 16,7 C 76 % 1010,7 hPa 0,0 l/m 0 min 0 min 0 W/m 16,1 km/h (3 Bft) 97,87 %
19.06.2023 05:26 21,1 C 20,0 C 16,7 C 76 % 1010,7 hPa 0,0 l/m 0 min 0 min 0 W/m 12,9 km/h (3 Bft) 97,87 %
19.06.2023 05:28 21,1 C 20,0 C 16,7 C 76 % 1010,7 hPa 0,0 l/m 0 min 0 min 2 W/m 9,7 km/h (2 Bft) 97,83 %
19.06.2023 05:30 21,0 C 20,0 C 16,7 C 77 % 1010,7 hPa 0,0 l/m 0 min 0 min 5 W/m 19,3 km/h (3 Bft) 98,11 %
19.06.2023 05:32 20,9 C 20,0 C 16,7 C 77 % 1010,8 hPa 0,0 l/m 0 min 0 min 5 W/m 12,9 km/h (3 Bft) 97,87 %
19.06.2023 05:34 20,9 C 20,0 C 16,7 C 77 % 1010,8 hPa 0,0 l/m 0 min 0 min 5 W/m 12,9 km/h (3 Bft) 100,00 %
19.06.2023 05:36 20,9 C 20,0 C 16,7 C 78 % 1010,8 hPa 0,0 l/m 0 min 0 min 7 W/m 12,9 km/h (3 Bft) 100,00 %
19.06.2023 05:38 20,8 C 19,4 C 16,7 C 78 % 1010,8 hPa 0,0 l/m 0 min 0 min 7 W/m 12,9 km/h (3 Bft) 100,00 %
19.06.2023 05:40 20,8 C 19,4 C 16,7 C 78 % 1010,9 hPa 0,0 l/m 0 min 0 min 7 W/m 12,9 km/h (3 Bft) 97,87 %
19.06.2023 05:42 20,7 C 19,4 C 16,7 C 78 % 1010,9 hPa 0,0 l/m 0 min 0 min 9 W/m 19,3 km/h (3 Bft) 100,00 %
19.06.2023 05:44 20,6 C 19,4 C 16,7 C 78 % 1011,0 hPa 0,0 l/m 0 min 0 min 9 W/m 16,1 km/h (3 Bft) 97,87 %
19.06.2023 05:46 20,6 C 19,4 C 16,1 C 79 % 1011,0 hPa 0,0 l/m 0 min 0 min 10 W/m 16,1 km/h (3 Bft) 100,00 %
19.06.2023 05:48 20,5 C 19,4 C 16,1 C 79 % 1011,1 hPa 0,0 l/m 0 min 0 min 11 W/m 22,5 km/h (4 Bft) 100,00 %
19.06.2023 05:50 20,4 C 19,4 C 16,1 C 79 % 1011,1 hPa 0,0 l/m 0 min 0 min 11 W/m 16,1 km/h (3 Bft) 97,87 %
19.06.2023 05:52 20,4 C 19,4 C 16,1 C 80 % 1011,1 hPa 0,0 l/m 0 min 0 min 12 W/m 16,1 km/h (3 Bft) 100,00 %
19.06.2023 05:54 20,3 C 18,9 C 16,1 C 80 % 1011,2 hPa 0,0 l/m 0 min 0 min 12 W/m 19,3 km/h (3 Bft) 100,00 %
19.06.2023 05:56 20,3 C 19,4 C 16,1 C 80 % 1011,2 hPa 0,0 l/m 0 min 0 min 13 W/m 12,9 km/h (3 Bft) 100,00 %
19.06.2023 05:58 20,3 C 18,9 C 16,1 C 80 % 1011,3 hPa 0,0 l/m 0 min 0 min 14 W/m 6,4 km/h (2 Bft) 100,00 %
19.06.2023 06:00 20,2 C 18,9 C 16,1 C 80 % 1011,3 hPa 0,0 l/m 0 min 0 min 14 W/m 6,4 km/h (2 Bft) 97,87 %
19.06.2023 06:02 20,2 C 18,9 C 16,1 C 80 % 1011,3 hPa 0,0 l/m 0 min 0 min 16 W/m 6,4 km/h (2 Bft) 100,00 %
19.06.2023 06:04 20,2 C 18,9 C 16,1 C 81 % 1011,3 hPa 0,0 l/m 0 min 0 min 16 W/m 9,7 km/h (2 Bft) 100,00 %
19.06.2023 06:08 20,1 C 18,9 C 16,1 C 81 % 1011,4 hPa 0,0 l/m 0 min 0 min 17 W/m 9,7 km/h (2 Bft) 100,00 %
19.06.2023 06:10 20,1 C 18,9 C 16,1 C 81 % 1011,3 hPa 0,0 l/m 0 min 0 min 18 W/m 16,1 km/h (3 Bft) 97,87 %
19.06.2023 06:12 20,1 C 18,9 C 16,1 C 81 % 1011,4 hPa 0,0 l/m 0 min 0 min 19 W/m 9,7 km/h (2 Bft) 93,62 %
19.06.2023 06:14 20,1 C 18,9 C 16,1 C 81 % 1011,4 hPa 0,0 l/m 0 min 0 min 19 W/m 6,4 km/h (2 Bft) 97,87 %
19.06.2023 06:16 20,0 C 18,9 C 16,1 C 81 % 1011,4 hPa 0,0 l/m 0 min 0 min 19 W/m 12,9 km/h (3 Bft) 97,87 %
19.06.2023 06:18 20,0 C 18,9 C 16,1 C 82 % 1011,5 hPa 0,0 l/m 0 min 0 min 21 W/m 12,9 km/h (3 Bft) 97,83 %
19.06.2023 06:20 19,9 C 18,9 C 16,1 C 81 % 1011,5 hPa 0,0 l/m 0 min 0 min 21 W/m 6,4 km/h (2 Bft) 93,62 %
19.06.2023 06:22 19,9 C 18,9 C 16,1 C 82 % 1011,5 hPa 0,0 l/m 0 min 0 min 21 W/m 12,9 km/h (3 Bft) 97,87 %
19.06.2023 06:24 19,9 C 18,9 C 16,1 C 82 % 1011,5 hPa 0,0 l/m 0 min 0 min 23 W/m 9,7 km/h (2 Bft) 97,87 %
19.06.2023 06:26 19,9 C 18,9 C 15,6 C 82 % 1011,6 hPa 0,0 l/m 0 min 0 min 23 W/m 3,2 km/h (1 Bft) 97,87 %
19.06.2023 06:28 19,9 C 18,9 C 15,6 C 82 % 1011,7 hPa 0,0 l/m 0 min 0 min 25 W/m 6,4 km/h (2 Bft) 97,87 %
19.06.2023 06:30 19,8 C 18,9 C 15,6 C 82 % 1011,7 hPa 0,0 l/m 0 min 0 min 25 W/m 6,4 km/h (2 Bft) 97,83 %
19.06.2023 06:32 19,8 C 18,9 C 15,6 C 82 % 1011,6 hPa 0,0 l/m 0 min 0 min 26 W/m 6,4 km/h (2 Bft) 97,87 %
19.06.2023 06:34 19,8 C 18,9 C 15,6 C 82 % 1011,6 hPa 0,0 l/m 0 min 0 min 26 W/m 3,2 km/h (1 Bft) 97,87 %
19.06.2023 06:36 19,8 C 18,9 C 15,6 C 82 % 1011,7 hPa 0,0 l/m 0 min 0 min 26 W/m 9,7 km/h (2 Bft) 97,87 %
19.06.2023 06:38 19,8 C 18,9 C 15,6 C 82 % 1011,8 hPa 0,0 l/m 0 min 0 min 27 W/m 6,4 km/h (2 Bft) 97,87 %
19.06.2023 06:40 19,8 C 18,9 C 15,6 C 83 % 1011,8 hPa 0,0 l/m 0 min 0 min 28 W/m 6,4 km/h (2 Bft) 95,74 %
19.06.2023 06:42 19,8 C 18,9 C 15,6 C 83 % 1011,9 hPa 0,0 l/m 0 min 0 min 29 W/m 16,1 km/h (3 Bft) 95,74 %
19.06.2023 06:44 19,8 C 18,9 C 15,6 C 83 % 1011,8 hPa 0,0 l/m 0 min 0 min 30 W/m 6,4 km/h (2 Bft) 97,83 %
19.06.2023 06:46 19,8 C 18,9 C 15,6 C 83 % 1011,8 hPa 0,0 l/m 0 min 0 min 32 W/m 6,4 km/h (2 Bft) 97,87 %
19.06.2023 06:48 19,8 C 18,9 C 15,6 C 83 % 1011,9 hPa 0,0 l/m 0 min 0 min 35 W/m 22,5 km/h (4 Bft) 97,87 %
19.06.2023 06:50 19,8 C 18,9 C 16,1 C 83 % 1011,8 hPa 0,0 l/m 0 min 0 min 43 W/m 19,3 km/h (3 Bft) 95,74 %
19.06.2023 06:52 19,8 C 18,9 C 16,1 C 83 % 1011,8 hPa 0,0 l/m 0 min 0 min 57 W/m 9,7 km/h (2 Bft) 97,87 %
19.06.2023 06:54 19,8 C 19,4 C 16,1 C 83 % 1011,8 hPa 0,0 l/m 0 min 0 min 80 W/m 9,7 km/h (2 Bft) 97,87 %
19.06.2023 06:56 19,8 C 19,4 C 16,1 C 83 % 1011,8 hPa 0,0 l/m 0 min 0 min 87 W/m 9,7 km/h (2 Bft) 95,74 %
19.06.2023 06:58 19,9 C 19,4 C 16,1 C 83 % 1011,9 hPa 0,0 l/m 0 min 0 min 78 W/m 9,7 km/h (2 Bft) 97,83 %
19.06.2023 07:00 19,9 C 19,4 C 16,1 C 83 % 1011,8 hPa 0,0 l/m 0 min 0 min 68 W/m 12,9 km/h (3 Bft) 95,74 %
19.06.2023 07:02 19,9 C 19,4 C 16,1 C 83 % 1011,9 hPa 0,0 l/m 0 min 0 min 63 W/m 12,9 km/h (3 Bft) 100,00 %
19.06.2023 07:04 20,0 C 19,4 C 16,1 C 83 % 1011,9 hPa 0,0 l/m 0 min 0 min 61 W/m 16,1 km/h (3 Bft) 97,67 %
19.06.2023 07:06 20,1 C 19,4 C 16,1 C 83 % 1012,0 hPa 0,0 l/m 0 min 0 min 56 W/m 19,3 km/h (3 Bft) 96,30 %
19.06.2023 07:08 20,1 C 19,4 C 16,1 C 83 % 1012,0 hPa 0,0 l/m 0 min 0 min 48 W/m 12,9 km/h (3 Bft) 94,29 %
19.06.2023 07:10 20,1 C 19,4 C 16,1 C 83 % 1012,0 hPa 0,0 l/m 0 min 0 min 42 W/m 9,7 km/h (2 Bft) 95,74 %
19.06.2023 07:12 20,1 C 19,4 C 16,7 C 83 % 1012,1 hPa 0,0 l/m 0 min 0 min 41 W/m 9,7 km/h (2 Bft) 93,62 %
19.06.2023 07:14 20,1 C 19,4 C 16,7 C 83 % 1012,1 hPa 0,0 l/m 0 min 0 min 60 W/m 12,9 km/h (3 Bft) 93,48 %
19.06.2023 07:16 20,1 C 19,4 C 16,7 C 83 % 1012,1 hPa 0,0 l/m 0 min 0 min 91 W/m 16,1 km/h (3 Bft) 93,62 %
19.06.2023 07:18 20,2 C 20,0 C 16,7 C 83 % 1012,1 hPa 0,0 l/m 0 min 0 min 115 W/m 6,4 km/h (2 Bft) 95,74 %
19.06.2023 07:20 20,2 C 20,0 C 16,7 C 83 % 1012,1 hPa 0,0 l/m 0 min 0 min 110 W/m 12,9 km/h (3 Bft) 95,74 %
19.06.2023 07:22 20,2 C 20,0 C 16,7 C 83 % 1012,1 hPa 0,0 l/m 0 min 0 min 114 W/m 16,1 km/h (3 Bft) 93,62 %
19.06.2023 07:24 20,3 C 20,0 C 16,7 C 82 % 1012,1 hPa 0,0 l/m 0 min 0 min 99 W/m 16,1 km/h (3 Bft) 95,74 %
19.06.2023 07:26 20,3 C 20,0 C 16,7 C 82 % 1012,1 hPa 0,0 l/m 0 min 0 min 81 W/m 22,5 km/h (4 Bft) 95,74 %
19.06.2023 07:28 20,3 C 20,0 C 16,7 C 82 % 1012,1 hPa 0,0 l/m 0 min 0 min 90 W/m 12,9 km/h (3 Bft) 95,65 %
19.06.2023 07:30 20,3 C 20,0 C 16,7 C 82 % 1012,0 hPa 0,0 l/m 0 min 0 min 111 W/m 12,9 km/h (3 Bft) 95,74 %
19.06.2023 07:32 20,3 C 20,0 C 16,7 C 82 % 1012,0 hPa 0,0 l/m 0 min 0 min 116 W/m 19,3 km/h (3 Bft) 95,74 %
19.06.2023 07:34 20,3 C 20,0 C 16,7 C 82 % 1012,1 hPa 0,0 l/m 0 min 0 min 121 W/m 12,9 km/h (3 Bft) 97,87 %
19.06.2023 07:36 20,4 C 20,0 C 16,7 C 82 % 1012,1 hPa 0,0 l/m 0 min 0 min 118 W/m 19,3 km/h (3 Bft) 97,87 %
19.06.2023 07:38 20,4 C 20,0 C 16,7 C 82 % 1012,2 hPa 0,0 l/m 0 min 0 min 122 W/m 25,7 km/h (4 Bft) 93,62 %
19.06.2023 07:40 20,4 C 20,0 C 16,7 C 82 % 1012,2 hPa 0,0 l/m 0 min 0 min 122 W/m 25,7 km/h (4 Bft) 97,87 %
19.06.2023 07:42 20,5 C 20,0 C 16,7 C 82 % 1012,1 hPa 0,0 l/m 0 min 0 min 130 W/m 22,5 km/h (4 Bft) 97,83 %
19.06.2023 07:44 20,5 C 20,0 C 16,7 C 82 % 1012,1 hPa 0,0 l/m 0 min 0 min 134 W/m 19,3 km/h (3 Bft) 97,87 %
19.06.2023 07:46 20,6 C 20,6 C 17,2 C 82 % 1012,1 hPa 0,0 l/m 0 min 0 min 130 W/m 16,1 km/h (3 Bft) 97,87 %
19.06.2023 07:48 20,6 C 20,0 C 16,7 C 81 % 1012,1 hPa 0,0 l/m 0 min 0 min 108 W/m 22,5 km/h (4 Bft) 95,74 %
19.06.2023 07:50 20,6 C 20,0 C 17,2 C 81 % 1012,2 hPa 0,0 l/m 0 min 0 min 125 W/m 6,4 km/h (2 Bft) 97,87 %
19.06.2023 07:52 20,6 C 20,0 C 17,2 C 81 % 1012,1 hPa 0,0 l/m 0 min 0 min 129 W/m 25,7 km/h (4 Bft) 97,87 %
19.06.2023 07:54 20,6 C 20,6 C 17,2 C 81 % 1012,1 hPa 0,0 l/m 0 min 0 min 112 W/m 16,1 km/h (3 Bft) 97,83 %
19.06.2023 07:56 20,7 C 20,6 C 17,2 C 81 % 1012,2 hPa 0,0 l/m 0 min 0 min 89 W/m 16,1 km/h (3 Bft) 100,00 %
19.06.2023 07:58 20,7 C 20,6 C 17,2 C 81 % 1012,2 hPa 0,0 l/m 0 min 0 min 79 W/m 16,1 km/h (3 Bft) 100,00 %
19.06.2023 08:00 20,7 C 20,0 C 17,2 C 81 % 1012,3 hPa 0,0 l/m 0 min 0 min 68 W/m 25,7 km/h (4 Bft) 100,00 %
19.06.2023 08:02 20,7 C 20,0 C 16,7 C 81 % 1012,3 hPa 0,0 l/m 0 min 0 min 60 W/m 12,9 km/h (3 Bft) 95,74 %
19.06.2023 08:04 20,7 C 20,0 C 16,7 C 81 % 1012,4 hPa 0,0 l/m 0 min 0 min 65 W/m 12,9 km/h (3 Bft) 100,00 %
19.06.2023 08:06 20,7 C 20,0 C 16,7 C 81 % 1012,3 hPa 0,0 l/m 0 min 0 min 64 W/m 19,3 km/h (3 Bft) 100,00 %
19.06.2023 08:08 20,7 C 20,0 C 16,7 C 81 % 1012,4 hPa 0,0 l/m 0 min 0 min 59 W/m 25,7 km/h (4 Bft) 100,00 %
19.06.2023 08:10 20,7 C 20,0 C 16,7 C 81 % 1012,4 hPa 0,0 l/m 0 min 0 min 80 W/m 19,3 km/h (3 Bft) 100,00 %
19.06.2023 08:12 20,7 C 20,0 C 16,7 C 81 % 1012,4 hPa 0,0 l/m 0 min 0 min 95 W/m 12,9 km/h (3 Bft) 100,00 %
19.06.2023 08:14 20,7 C 20,0 C 16,7 C 81 % 1012,4 hPa 0,0 l/m 0 min 0 min 101 W/m 12,9 km/h (3 Bft) 100,00 %
19.06.2023 08:16 20,7 C 20,0 C 16,7 C 81 % 1012,4 hPa 0,0 l/m 0 min 0 min 95 W/m 12,9 km/h (3 Bft) 100,00 %
19.06.2023 08:18 20,7 C 20,0 C 16,7 C 81 % 1012,4 hPa 0,0 l/m 0 min 0 min 97 W/m 16,1 km/h (3 Bft) 100,00 %
19.06.2023 08:20 20,7 C 20,0 C 17,2 C 81 % 1012,5 hPa 0,0 l/m 0 min 0 min 103 W/m 6,4 km/h (2 Bft) 100,00 %
19.06.2023 08:22 20,7 C 20,0 C 17,2 C 81 % 1012,5 hPa 0,0 l/m 0 min 0 min 99 W/m 12,9 km/h (3 Bft) 100,00 %
19.06.2023 08:24 20,7 C 20,0 C 17,2 C 81 % 1012,6 hPa 0,0 l/m 0 min 0 min 93 W/m 22,5 km/h (4 Bft) 100,00 %
19.06.2023 08:26 20,7 C 20,0 C 16,7 C 81 % 1012,5 hPa 0,0 l/m 0 min 0 min 74 W/m 19,3 km/h (3 Bft) 100,00 %
19.06.2023 08:28 20,7 C 20,0 C 16,7 C 81 % 1012,5 hPa 0,0 l/m 0 min 0 min 63 W/m 16,1 km/h (3 Bft) 100,00 %
19.06.2023 08:30 20,7 C 20,0 C 16,7 C 81 % 1012,5 hPa 0,0 l/m 0 min 0 min 58 W/m 9,7 km/h (2 Bft) 100,00 %
19.06.2023 08:32 20,6 C 20,0 C 16,7 C 82 % 1012,5 hPa 0,0 l/m 0 min 0 min 66 W/m 16,1 km/h (3 Bft) 100,00 %
19.06.2023 08:34 20,6 C 20,0 C 16,7 C 82 % 1012,5 hPa 0,0 l/m 0 min 0 min 68 W/m 16,1 km/h (3 Bft) 100,00 %
19.06.2023 08:36 20,6 C 20,0 C 16,7 C 83 % 1012,6 hPa 0,0 l/m 0 min 0 min 75 W/m 12,9 km/h (3 Bft) 100,00 %
19.06.2023 08:38 20,6 C 19,4 C 16,7 C 83 % 1012,6 hPa 0,0 l/m 0 min 0 min 97 W/m 16,1 km/h (3 Bft) 100,00 %
19.06.2023 08:40 20,5 C 19,4 C 16,1 C 83 % 1012,8 hPa 0,0 l/m 0 min 0 min 110 W/m 19,3 km/h (3 Bft) 100,00 %
19.06.2023 08:42 20,4 C 19,4 C 16,1 C 84 % 1012,8 hPa 0,0 l/m 0 min 0 min 100 W/m 12,9 km/h (3 Bft) 100,00 %
19.06.2023 08:44 20,4 C 19,4 C 16,1 C 84 % 1012,8 hPa 0,0 l/m 0 min 0 min 124 W/m 12,9 km/h (3 Bft) 95,74 %
19.06.2023 08:46 20,3 C 20,0 C 16,1 C 84 % 1012,8 hPa 0,0 l/m 0 min 0 min 165 W/m 12,9 km/h (3 Bft) 100,00 %
19.06.2023 08:48 20,3 C 20,0 C 16,7 C 85 % 1012,8 hPa 0,0 l/m 0 min 0 min 181 W/m 19,3 km/h (3 Bft) 100,00 %
19.06.2023 08:50 20,3 C 20,0 C 16,7 C 85 % 1012,8 hPa 0,0 l/m 0 min 0 min 163 W/m 9,7 km/h (2 Bft) 100,00 %
19.06.2023 08:52 20,3 C 20,0 C 16,7 C 85 % 1012,8 hPa 0,0 l/m 0 min 0 min 178 W/m 16,1 km/h (3 Bft) 100,00 %
19.06.2023 08:54 20,3 C 20,6 C 16,7 C 85 % 1012,9 hPa 0,0 l/m 0 min 0 min 205 W/m 16,1 km/h (3 Bft) 95,74 %
19.06.2023 08:56 20,4 C 20,6 C 17,2 C 85 % 1012,8 hPa 0,0 l/m 0 min 0 min 220 W/m 6,4 km/h (2 Bft) 95,74 %
19.06.2023 08:58 20,4 C 20,6 C 17,2 C 85 % 1012,8 hPa 0,0 l/m 0 min 0 min 216 W/m 6,4 km/h (2 Bft) 95,74 %
19.06.2023 09:00 20,5 C 21,1 C 17,2 C 85 % 1012,9 hPa 0,0 l/m 0 min 0 min 249 W/m 9,7 km/h (2 Bft) 97,87 %
19.06.2023 09:02 20,6 C 21,1 C 17,2 C 85 % 1012,9 hPa 0,0 l/m 2 min 0 min 291 W/m 16,1 km/h (3 Bft) 97,83 %
19.06.2023 09:04 20,6 C 21,1 C 17,8 C 85 % 1012,9 hPa 0,0 l/m 0 min 0 min 243 W/m 6,4 km/h (2 Bft) 95,35 %
19.06.2023 09:06 20,7 C 21,1 C 17,8 C 85 % 1013,0 hPa 0,0 l/m 0 min 0 min 201 W/m 9,7 km/h (2 Bft) 98,31 %
19.06.2023 09:08 20,8 C 21,1 C 17,8 C 85 % 1013,0 hPa 0,0 l/m 0 min 0 min 199 W/m 6,4 km/h (2 Bft) 97,14 %
19.06.2023 09:10 20,8 C 21,1 C 17,8 C 85 % 1013,0 hPa 0,0 l/m 0 min 0 min 191 W/m 9,7 km/h (2 Bft) 97,87 %
19.06.2023 09:12 20,9 C 21,1 C 17,2 C 84 % 1013,1 hPa 0,0 l/m 0 min 0 min 129 W/m 16,1 km/h (3 Bft) 97,87 %
19.06.2023 09:14 20,8 C 20,6 C 17,2 C 84 % 1013,1 hPa 0,0 l/m 0 min 0 min 82 W/m 25,7 km/h (4 Bft) 95,65 %
19.06.2023 09:16 20,8 C 20,0 C 17,2 C 84 % 1013,2 hPa 0,0 l/m 0 min 0 min 86 W/m 16,1 km/h (3 Bft) 97,87 %
19.06.2023 09:18 20,8 C 20,0 C 16,7 C 84 % 1013,3 hPa 0,0 l/m 0 min 0 min 85 W/m 16,1 km/h (3 Bft) 95,74 %
19.06.2023 09:20 20,7 C 19,4 C 16,7 C 84 % 1013,3 hPa 0,0 l/m 0 min 0 min 89 W/m 12,9 km/h (3 Bft) 95,74 %
19.06.2023 09:22 20,7 C 19,4 C 16,1 C 85 % 1013,4 hPa 0,0 l/m 0 min 0 min 106 W/m 12,9 km/h (3 Bft) 95,74 %
19.06.2023 09:24 20,5 C 19,4 C 16,1 C 86 % 1013,4 hPa 0,0 l/m 0 min 0 min 127 W/m 12,9 km/h (3 Bft) 95,74 %
19.06.2023 09:26 20,4 C 19,4 C 16,1 C 86 % 1013,3 hPa 0,0 l/m 0 min 0 min 123 W/m 12,9 km/h (3 Bft) 95,74 %
19.06.2023 09:28 20,4 C 19,4 C 16,1 C 87 % 1013,3 hPa 0,0 l/m 0 min 0 min 125 W/m 6,4 km/h (2 Bft) 97,87 %
19.06.2023 09:30 20,3 C 19,4 C 16,1 C 87 % 1013,3 hPa 0,0 l/m 0 min 0 min 133 W/m 9,7 km/h (2 Bft) 97,83 %
19.06.2023 09:32 20,3 C 19,4 C 16,1 C 87 % 1013,2 hPa 0,0 l/m 0 min 0 min 151 W/m 6,4 km/h (2 Bft) 97,87 %
19.06.2023 09:34 20,2 C 19,4 C 16,1 C 87 % 1013,2 hPa 0,0 l/m 0 min 0 min 160 W/m 9,7 km/h (2 Bft) 95,74 %
19.06.2023 09:36 20,2 C 20,0 C 16,7 C 87 % 1013,3 hPa 0,0 l/m 0 min 0 min 139 W/m 9,7 km/h (2 Bft) 95,74 %
19.06.2023 09:38 20,2 C 20,0 C 16,7 C 87 % 1013,2 hPa 0,0 l/m 0 min 0 min 291 W/m 6,4 km/h (2 Bft) 97,87 %
19.06.2023 09:40 20,2 C 21,1 C 17,2 C 88 % 1013,2 hPa 0,0 l/m 0 min 0 min 299 W/m 9,7 km/h (2 Bft) 97,83 %
19.06.2023 09:42 20,3 C 22,8 C 18,3 C 88 % 1013,2 hPa 0,0 l/m 2 min 0 min 406 W/m 19,3 km/h (3 Bft) 97,87 %
19.06.2023 09:44 20,3 C 22,8 C 18,3 C 88 % 1013,2 hPa 0,0 l/m 2 min 0 min 497 W/m 16,1 km/h (3 Bft) 97,87 %
19.06.2023 09:46 20,4 C 22,8 C 18,9 C 87 % 1013,2 hPa 0,0 l/m 2 min 0 min 405 W/m 19,3 km/h (3 Bft) 95,74 %
19.06.2023 09:48 20,5 C 23,3 C 19,4 C 87 % 1013,2 hPa 0,0 l/m 2 min 0 min 562 W/m 29,0 km/h (5 Bft) 95,74 %
19.06.2023 09:50 20,7 C 23,9 C 20,0 C 87 % 1013,1 hPa 0,0 l/m 2 min 0 min 604 W/m 12,9 km/h (3 Bft) 93,62 %
19.06.2023 09:52 20,8 C 24,4 C 20,0 C 87 % 1013,1 hPa 0,0 l/m 2 min 0 min 573 W/m 12,9 km/h (3 Bft) 93,62 %
19.06.2023 09:54 21,0 C 24,4 C 20,6 C 86 % 1013,2 hPa 0,0 l/m 2 min 0 min 606 W/m 12,9 km/h (3 Bft) 95,65 %
19.06.2023 09:56 21,1 C 24,4 C 20,6 C 85 % 1013,2 hPa 0,0 l/m 2 min 0 min 635 W/m 19,3 km/h (3 Bft) 95,74 %
19.06.2023 09:58 21,3 C 25,0 C 21,1 C 84 % 1013,3 hPa 0,0 l/m 2 min 0 min 582 W/m 16,1 km/h (3 Bft) 95,74 %
19.06.2023 10:00 21,5 C 25,0 C 21,7 C 83 % 1013,2 hPa 0,0 l/m 2 min 0 min 589 W/m 12,9 km/h (3 Bft) 95,74 %
19.06.2023 10:02 21,7 C 25,0 C 21,7 C 82 % 1013,2 hPa 0,0 l/m 2 min 0 min 645 W/m 12,9 km/h (3 Bft) 91,49 %
19.06.2023 10:04 21,8 C 25,0 C 21,7 C 81 % 1013,2 hPa 0,0 l/m 2 min 0 min 632 W/m 19,3 km/h (3 Bft) 93,88 %
19.06.2023 10:06 21,9 C 24,4 C 21,1 C 80 % 1013,3 hPa 0,0 l/m 2 min 0 min 631 W/m 22,5 km/h (4 Bft) 94,83 %
19.06.2023 10:08 22,0 C 23,9 C 21,1 C 79 % 1013,1 hPa 0,0 l/m 2 min 0 min 592 W/m 16,1 km/h (3 Bft) 94,29 %
19.06.2023 10:10 21,9 C 23,9 C 21,1 C 79 % 1013,1 hPa 0,0 l/m 2 min 0 min 582 W/m 16,1 km/h (3 Bft) 95,74 %
19.06.2023 10:12 22,0 C 23,3 C 20,6 C 78 % 1013,1 hPa 0,0 l/m 2 min 0 min 428 W/m 16,1 km/h (3 Bft) 95,74 %
19.06.2023 10:14 22,1 C 23,3 C 20,6 C 78 % 1013,1 hPa 0,0 l/m 0 min 0 min 287 W/m 12,9 km/h (3 Bft) 95,74 %
19.06.2023 10:16 22,1 C 22,8 C 19,4 C 78 % 1013,0 hPa 0,0 l/m 0 min 0 min 262 W/m 22,5 km/h (4 Bft) 95,92 %
19.06.2023 10:18 22,1 C 22,2 C 19,4 C 78 % 1013,0 hPa 0,0 l/m 0 min 0 min 254 W/m 16,1 km/h (3 Bft) 95,74 %
19.06.2023 10:20 22,1 C 22,2 C 19,4 C 78 % 1013,0 hPa 0,0 l/m 0 min 0 min 252 W/m 12,9 km/h (3 Bft) 97,83 %
19.06.2023 10:22 22,1 C 22,2 C 19,4 C 78 % 1013,1 hPa 0,0 l/m 0 min 0 min 226 W/m 12,9 km/h (3 Bft) 97,87 %
19.06.2023 10:24 22,0 C 22,2 C 18,9 C 78 % 1013,2 hPa 0,0 l/m 0 min 0 min 245 W/m 16,1 km/h (3 Bft) 95,74 %
19.06.2023 10:26 21,9 C 22,2 C 18,9 C 78 % 1013,1 hPa 0,0 l/m 0 min 0 min 239 W/m 12,9 km/h (3 Bft) 97,87 %
19.06.2023 10:28 21,9 C 22,2 C 18,9 C 78 % 1013,1 hPa 0,0 l/m 0 min 0 min 261 W/m 12,9 km/h (3 Bft) 100,00 %
19.06.2023 10:30 22,0 C 22,8 C 19,4 C 79 % 1013,1 hPa 0,0 l/m 2 min 0 min 364 W/m 12,9 km/h (3 Bft) 100,00 %
19.06.2023 10:32 22,1 C 22,8 C 19,4 C 78 % 1013,0 hPa 0,0 l/m 2 min 0 min 677 W/m 12,9 km/h (3 Bft) 97,87 %
19.06.2023 10:34 22,2 C 22,8 C 20,0 C 78 % 1013,1 hPa 0,0 l/m 0 min 0 min 364 W/m 12,9 km/h (3 Bft) 97,83 %
19.06.2023 10:36 22,3 C 22,8 C 19,4 C 78 % 1013,1 hPa 0,0 l/m 0 min 0 min 295 W/m 12,9 km/h (3 Bft) 100,00 %
19.06.2023 10:38 22,3 C 22,8 C 19,4 C 77 % 1013,2 hPa 0,0 l/m 0 min 0 min 291 W/m 16,1 km/h (3 Bft) 100,00 %
19.06.2023 10:40 22,3 C 22,8 C 19,4 C 77 % 1013,1 hPa 0,0 l/m 0 min 0 min 254 W/m 16,1 km/h (3 Bft) 97,87 %
19.06.2023 10:42 22,4 C 22,8 C 19,4 C 77 % 1013,2 hPa 0,0 l/m 0 min 0 min 276 W/m 19,3 km/h (3 Bft) 95,74 %
19.06.2023 10:44 22,4 C 22,8 C 20,0 C 77 % 1013,1 hPa 0,0 l/m 0 min 0 min 318 W/m 12,9 km/h (3 Bft) 100,00 %
19.06.2023 10:46 22,5 C 22,8 C 20,0 C 76 % 1013,1 hPa 0,0 l/m 0 min 0 min 304 W/m 12,9 km/h (3 Bft) 95,74 %
19.06.2023 10:48 22,6 C 23,3 C 20,0 C 76 % 1013,1 hPa 0,0 l/m 2 min 0 min 413 W/m 12,9 km/h (3 Bft) 100,00 %
19.06.2023 10:50 22,8 C 23,9 C 20,0 C 76 % 1013,1 hPa 0,0 l/m 0 min 0 min 345 W/m 12,9 km/h (3 Bft) 97,83 %
19.06.2023 10:52 22,9 C 23,9 C 20,0 C 75 % 1013,1 hPa 0,0 l/m 0 min 0 min 362 W/m 12,9 km/h (3 Bft) 100,00 %
19.06.2023 10:54 23,0 C 23,9 C 20,6 C 75 % 1013,2 hPa 0,0 l/m 0 min 0 min 309 W/m 19,3 km/h (3 Bft) 100,00 %
19.06.2023 10:56 23,1 C 24,4 C 20,6 C 74 % 1013,2 hPa 0,0 l/m 2 min 0 min 428 W/m 19,3 km/h (3 Bft) 97,87 %
19.06.2023 10:58 23,2 C 24,4 C 20,6 C 73 % 1013,2 hPa 0,0 l/m 2 min 0 min 599 W/m 12,9 km/h (3 Bft) 97,87 %
19.06.2023 11:00 23,3 C 25,0 C 21,1 C 73 % 1013,2 hPa 0,0 l/m 2 min 0 min 532 W/m 16,1 km/h (3 Bft) 97,87 %
19.06.2023 11:02 23,4 C 25,0 C 21,1 C 73 % 1013,2 hPa 0,0 l/m 2 min 0 min 682 W/m 22,5 km/h (4 Bft) 95,74 %
19.06.2023 11:04 23,5 C 25,0 C 21,1 C 72 % 1013,3 hPa 0,0 l/m 2 min 0 min 604 W/m 19,3 km/h (3 Bft) 97,83 %
19.06.2023 11:06 23,6 C 24,4 C 21,1 C 72 % 1013,2 hPa 0,0 l/m 2 min 0 min 397 W/m 12,9 km/h (3 Bft) 96,67 %
19.06.2023 11:08 23,7 C 25,0 C 21,1 C 72 % 1013,1 hPa 0,0 l/m 0 min 0 min 362 W/m 9,7 km/h (2 Bft) 100,00 %
19.06.2023 11:10 23,7 C 25,0 C 21,1 C 72 % 1013,2 hPa 0,0 l/m 2 min 0 min 430 W/m 16,1 km/h (3 Bft) 95,74 %
19.06.2023 11:12 23,8 C 25,6 C 21,7 C 71 % 1013,2 hPa 0,0 l/m 2 min 0 min 880 W/m 16,1 km/h (3 Bft) 95,74 %
19.06.2023 11:14 23,8 C 25,0 C 21,7 C 70 % 1013,2 hPa 0,0 l/m 2 min 0 min 423 W/m 9,7 km/h (2 Bft) 97,87 %
19.06.2023 11:16 23,9 C 25,6 C 21,7 C 71 % 1013,2 hPa 0,0 l/m 0 min 0 min 288 W/m 16,1 km/h (3 Bft) 97,87 %
19.06.2023 11:18 24,1 C 26,1 C 21,7 C 70 % 1013,2 hPa 0,0 l/m 0 min 0 min 287 W/m 6,4 km/h (2 Bft) 97,83 %
19.06.2023 11:20 24,3 C 27,2 C 22,2 C 70 % 1013,2 hPa 0,0 l/m 2 min 0 min 763 W/m 9,7 km/h (2 Bft) 97,87 %
19.06.2023 11:22 24,5 C 27,8 C 22,2 C 70 % 1013,2 hPa 0,0 l/m 2 min 0 min 856 W/m 12,9 km/h (3 Bft) 97,87 %
19.06.2023 11:24 24,7 C 27,2 C 22,2 C 69 % 1013,3 hPa 0,0 l/m 2 min 0 min 646 W/m 29,0 km/h (5 Bft) 97,87 %
19.06.2023 11:26 24,7 C 26,7 C 22,8 C 66 % 1013,3 hPa 0,0 l/m 0 min 0 min 272 W/m 19,3 km/h (3 Bft) 97,87 %
19.06.2023 11:28 24,7 C 27,2 C 23,3 C 67 % 1013,3 hPa 0,0 l/m 2 min 0 min 815 W/m 16,1 km/h (3 Bft) 97,87 %
19.06.2023 11:30 24,8 C 26,7 C 23,3 C 66 % 1013,3 hPa 0,0 l/m 2 min 0 min 893 W/m 19,3 km/h (3 Bft) 100,00 %
19.06.2023 11:32 24,8 C 26,7 C 23,3 C 67 % 1013,3 hPa 0,0 l/m 2 min 0 min 881 W/m 12,9 km/h (3 Bft) 100,00 %
19.06.2023 11:34 24,8 C 26,1 C 22,8 C 66 % 1013,4 hPa 0,0 l/m 2 min 0 min 676 W/m 25,7 km/h (4 Bft) 100,00 %
19.06.2023 11:36 24,7 C 25,6 C 22,2 C 65 % 1013,4 hPa 0,0 l/m 0 min 0 min 408 W/m 12,9 km/h (3 Bft) 100,00 %
19.06.2023 11:38 24,7 C 25,6 C 22,2 C 66 % 1013,4 hPa 0,0 l/m 2 min 0 min 448 W/m 12,9 km/h (3 Bft) 100,00 %
19.06.2023 11:40 24,7 C 25,6 C 22,2 C 66 % 1013,4 hPa 0,0 l/m 2 min 0 min 620 W/m 16,1 km/h (3 Bft) 100,00 %
19.06.2023 11:42 24,7 C 26,1 C 22,8 C 66 % 1013,4 hPa 0,0 l/m 2 min 0 min 745 W/m 12,9 km/h (3 Bft) 100,00 %
19.06.2023 11:44 24,8 C 27,2 C 23,9 C 67 % 1013,4 hPa 0,0 l/m 2 min 0 min 882 W/m 12,9 km/h (3 Bft) 100,00 %
19.06.2023 11:46 25,0 C 27,8 C 25,0 C 66 % 1013,4 hPa 0,0 l/m 2 min 0 min 915 W/m 16,1 km/h (3 Bft) 100,00 %
19.06.2023 11:48 25,1 C 28,3 C 25,6 C 65 % 1013,4 hPa 0,0 l/m 2 min 0 min 849 W/m 16,1 km/h (3 Bft) 100,00 %
19.06.2023 11:50 25,2 C 28,9 C 26,1 C 66 % 1013,5 hPa 0,0 l/m 2 min 0 min 765 W/m 12,9 km/h (3 Bft) 100,00 %
19.06.2023 11:52 25,3 C 29,4 C 26,7 C 66 % 1013,5 hPa 0,0 l/m 2 min 0 min 919 W/m 9,7 km/h (2 Bft) 97,87 %
19.06.2023 11:54 25,4 C 27,8 C 25,6 C 64 % 1013,5 hPa 0,0 l/m 2 min 0 min 716 W/m 19,3 km/h (3 Bft) 100,00 %
19.06.2023 11:56 25,3 C 27,2 C 24,4 C 64 % 1013,5 hPa 0,0 l/m 0 min 0 min 200 W/m 22,5 km/h (4 Bft) 100,00 %
19.06.2023 11:58 25,2 C 27,2 C 23,9 C 64 % 1013,5 hPa 0,0 l/m 0 min 0 min 316 W/m 29,0 km/h (5 Bft) 100,00 %
19.06.2023 12:00 25,2 C 27,8 C 23,9 C 64 % 1013,6 hPa 0,0 l/m 2 min 0 min 881 W/m 29,0 km/h (5 Bft) 95,74 %
19.06.2023 12:02 25,2 C 27,8 C 24,4 C 64 % 1013,5 hPa 0,0 l/m 2 min 0 min 865 W/m 9,7 km/h (2 Bft) 100,00 %
19.06.2023 12:04 25,3 C 28,3 C 25,0 C 64 % 1013,6 hPa 0,0 l/m 2 min 0 min 857 W/m 12,9 km/h (3 Bft) 97,87 %
19.06.2023 12:07 25,4 C 28,9 C 25,6 C 65 % 1013,6 hPa 0,0 l/m 3 min 0 min 893 W/m 9,7 km/h (2 Bft) 97,87 %
19.06.2023 12:08 25,6 C 29,4 C 25,6 C 64 % 1013,6 hPa 0,0 l/m 1 min 0 min 880 W/m 9,7 km/h (2 Bft) 97,92 %
19.06.2023 12:12 25,8 C 30,0 C 26,1 C 63 % 1013,5 hPa 0,0 l/m 4 min 0 min 904 W/m 12,9 km/h (3 Bft) 100,00 %
19.06.2023 12:14 25,9 C 30,0 C 27,2 C 62 % 1013,5 hPa 0,0 l/m 2 min 0 min 901 W/m 16,1 km/h (3 Bft) 98,18 %
19.06.2023 12:16 26,0 C 30,0 C 27,8 C 62 % 1013,5 hPa 0,0 l/m 2 min 0 min 920 W/m 32,2 km/h (5 Bft) 97,87 %
19.06.2023 12:18 26,1 C 30,0 C 28,9 C 62 % 1013,5 hPa 0,0 l/m 2 min 0 min 937 W/m 19,3 km/h (3 Bft) 97,37 %
19.06.2023 12:20 26,2 C 30,0 C 29,4 C 61 % 1013,6 hPa 0,0 l/m 2 min 0 min 925 W/m 22,5 km/h (4 Bft) 97,87 %
19.06.2023 12:22 26,2 C 30,0 C 29,4 C 61 % 1013,6 hPa 0,0 l/m 2 min 0 min 904 W/m 29,0 km/h (5 Bft) 97,87 %
19.06.2023 12:24 26,2 C 29,4 C 29,4 C 62 % 1013,5 hPa 0,0 l/m 2 min 0 min 871 W/m 16,1 km/h (3 Bft) 97,87 %
19.06.2023 12:26 26,3 C 29,4 C 29,4 C 62 % 1013,5 hPa 0,0 l/m 2 min 0 min 860 W/m 16,1 km/h (3 Bft) 95,74 %
19.06.2023 12:28 26,4 C 30,0 C 29,4 C 61 % 1013,5 hPa 0,0 l/m 2 min 0 min 851 W/m 9,7 km/h (2 Bft) 93,62 %
19.06.2023 12:30 26,5 C 30,0 C 30,0 C 60 % 1013,6 hPa 0,0 l/m 2 min 0 min 866 W/m 22,5 km/h (4 Bft) 97,87 %
19.06.2023 12:32 26,6 C 29,4 C 30,0 C 60 % 1013,4 hPa 0,0 l/m 2 min 0 min 821 W/m 9,7 km/h (2 Bft) 97,83 %
19.06.2023 12:34 26,7 C 30,0 C 30,6 C 60 % 1013,5 hPa 0,0 l/m 2 min 0 min 813 W/m 12,9 km/h (3 Bft) 97,87 %
19.06.2023 12:36 26,7 C 30,0 C 30,0 C 60 % 1013,5 hPa 0,0 l/m 2 min 0 min 810 W/m 12,9 km/h (3 Bft) 97,87 %
19.06.2023 12:38 26,8 C 30,6 C 30,0 C 61 % 1013,5 hPa 0,0 l/m 2 min 0 min 889 W/m 12,9 km/h (3 Bft) 95,74 %
19.06.2023 12:40 26,8 C 30,6 C 30,6 C 60 % 1013,5 hPa 0,0 l/m 2 min 0 min 946 W/m 16,1 km/h (3 Bft) 97,87 %
19.06.2023 12:42 26,9 C 30,6 C 31,1 C 60 % 1013,4 hPa 0,0 l/m 2 min 0 min 903 W/m 19,3 km/h (3 Bft) 97,87 %
19.06.2023 12:44 27,0 C 31,1 C 31,7 C 59 % 1013,4 hPa 0,0 l/m 2 min 0 min 965 W/m 12,9 km/h (3 Bft) 93,62 %
19.06.2023 12:46 27,1 C 30,6 C 30,6 C 59 % 1013,4 hPa 0,0 l/m 2 min 0 min 722 W/m 6,4 km/h (2 Bft) 95,65 %
19.06.2023 12:48 27,1 C 30,0 C 30,0 C 58 % 1013,5 hPa 0,0 l/m 2 min 0 min 641 W/m 12,9 km/h (3 Bft) 91,49 %
19.06.2023 12:50 27,0 C 28,9 C 27,8 C 58 % 1013,4 hPa 0,0 l/m 2 min 0 min 588 W/m 9,7 km/h (2 Bft) 95,74 %
19.06.2023 12:52 27,0 C 28,3 C 27,8 C 58 % 1013,4 hPa 0,0 l/m 2 min 0 min 593 W/m 12,9 km/h (3 Bft) 95,74 %
19.06.2023 12:54 26,8 C 28,3 C 27,2 C 57 % 1013,4 hPa 0,0 l/m 2 min 0 min 614 W/m 22,5 km/h (4 Bft) 93,62 %
19.06.2023 12:56 26,7 C 28,3 C 27,2 C 58 % 1013,3 hPa 0,0 l/m 2 min 0 min 705 W/m 12,9 km/h (3 Bft) 95,74 %
19.06.2023 12:58 26,7 C 29,4 C 27,8 C 58 % 1013,4 hPa 0,0 l/m 2 min 0 min 761 W/m 12,9 km/h (3 Bft) 93,62 %
19.06.2023 13:00 26,8 C 30,0 C 28,3 C 59 % 1013,4 hPa 0,0 l/m 2 min 0 min 791 W/m 12,9 km/h (3 Bft) 95,65 %
19.06.2023 13:02 26,8 C 28,9 C 28,3 C 58 % 1013,4 hPa 0,0 l/m 2 min 0 min 842 W/m 12,9 km/h (3 Bft) 95,74 %
19.06.2023 13:04 26,8 C 28,9 C 27,8 C 58 % 1013,4 hPa 0,0 l/m 2 min 0 min 779 W/m 16,1 km/h (3 Bft) 93,88 %
19.06.2023 13:06 26,8 C 29,4 C 28,3 C 58 % 1013,3 hPa 0,0 l/m 2 min 0 min 624 W/m 9,7 km/h (2 Bft) 96,61 %
19.06.2023 13:08 26,8 C 30,6 C 28,3 C 59 % 1013,3 hPa 0,0 l/m 2 min 0 min 823 W/m 12,9 km/h (3 Bft) 94,29 %
19.06.2023 13:10 26,9 C 30,6 C 28,3 C 59 % 1013,3 hPa 0,0 l/m 2 min 0 min 831 W/m 6,4 km/h (2 Bft) 93,62 %
19.06.2023 13:12 27,0 C 30,6 C 28,3 C 58 % 1013,4 hPa 0,0 l/m 2 min 0 min 767 W/m 6,4 km/h (2 Bft) 95,65 %
19.06.2023 13:15 27,1 C 30,6 C 28,3 C 58 % 1013,4 hPa 0,0 l/m 3 min 0 min 873 W/m 12,9 km/h (3 Bft) 96,49 %
19.06.2023 13:18 27,2 C 31,1 C 28,9 C 58 % 1013,3 hPa 0,0 l/m 3 min 0 min 945 W/m 9,7 km/h (2 Bft) 100,00 %
19.06.2023 13:24 27,4 C 32,2 C 28,9 C 57 % 1013,3 hPa 0,0 l/m 5 min 0 min 975 W/m 6,4 km/h (2 Bft) 6,67 %
19.06.2023 13:25 27,4 C 32,2 C 28,9 C 57 % 1013,3 hPa 0,0 l/m 1 min 0 min 986 W/m 6,4 km/h (2 Bft) 0,88 %
19.06.2023 13:28 27,4 C 30,0 C 27,8 C 57 % 1013,3 hPa 0,0 l/m 3 min 0 min 552 W/m 6,4 km/h (2 Bft) 92,86 %
19.06.2023 13:30 27,5 C 30,0 C 27,8 C 57 % 1013,3 hPa 0,0 l/m 2 min 0 min 616 W/m 12,9 km/h (3 Bft) 97,87 %
19.06.2023 13:32 27,6 C 30,6 C 28,3 C 56 % 1013,2 hPa 0,0 l/m 2 min 0 min 775 W/m 6,4 km/h (2 Bft) 95,74 %
19.06.2023 13:34 27,6 C 30,6 C 28,9 C 56 % 1013,3 hPa 0,0 l/m 2 min 0 min 865 W/m 16,1 km/h (3 Bft) 100,00 %
19.06.2023 13:36 27,6 C 31,1 C 29,4 C 55 % 1013,2 hPa 0,0 l/m 2 min 0 min 919 W/m 9,7 km/h (2 Bft) 100,00 %
19.06.2023 13:38 27,7 C 31,1 C 29,4 C 55 % 1013,3 hPa 0,0 l/m 2 min 0 min 904 W/m 12,9 km/h (3 Bft) 100,00 %
19.06.2023 13:40 27,7 C 31,1 C 29,4 C 55 % 1013,3 hPa 0,0 l/m 2 min 0 min 847 W/m 16,1 km/h (3 Bft) 97,87 %
19.06.2023 13:42 27,7 C 31,1 C 29,4 C 55 % 1013,3 hPa 0,0 l/m 2 min 0 min 850 W/m 12,9 km/h (3 Bft) 97,83 %
19.06.2023 13:44 27,8 C 30,6 C 29,4 C 55 % 1013,2 hPa 0,0 l/m 2 min 0 min 756 W/m 12,9 km/h (3 Bft) 100,00 %
19.06.2023 13:46 27,8 C 30,0 C 28,9 C 54 % 1013,2 hPa 0,0 l/m 2 min 0 min 622 W/m 12,9 km/h (3 Bft) 97,87 %
19.06.2023 13:48 27,7 C 30,0 C 27,8 C 54 % 1013,2 hPa 0,0 l/m 2 min 0 min 625 W/m 12,9 km/h (3 Bft) 100,00 %
19.06.2023 13:50 27,7 C 30,0 C 28,3 C 54 % 1013,2 hPa 0,0 l/m 2 min 0 min 656 W/m 9,7 km/h (2 Bft) 97,87 %
19.06.2023 13:52 27,7 C 30,6 C 28,9 C 54 % 1013,2 hPa 0,0 l/m 2 min 0 min 866 W/m 16,1 km/h (3 Bft) 100,00 %
19.06.2023 13:54 27,7 C 31,7 C 29,4 C 55 % 1013,2 hPa 0,0 l/m 2 min 0 min 953 W/m 16,1 km/h (3 Bft) 100,00 %
19.06.2023 13:56 27,7 C 32,2 C 29,4 C 55 % 1013,3 hPa 0,0 l/m 2 min 0 min 885 W/m 12,9 km/h (3 Bft) 100,00 %
19.06.2023 13:58 27,8 C 32,2 C 28,3 C 54 % 1013,2 hPa 0,0 l/m 2 min 0 min 805 W/m 12,9 km/h (3 Bft) 100,00 %
19.06.2023 14:00 27,8 C 32,8 C 28,3 C 55 % 1013,2 hPa 0,0 l/m 2 min 0 min 998 W/m 9,7 km/h (2 Bft) 100,00 %
19.06.2023 14:02 27,8 C 32,8 C 27,2 C 54 % 1013,1 hPa 0,0 l/m 2 min 0 min 952 W/m 9,7 km/h (2 Bft) 100,00 %
19.06.2023 14:04 27,9 C 33,3 C 27,2 C 54 % 1013,2 hPa 0,0 l/m 2 min 0 min 962 W/m 12,9 km/h (3 Bft) 100,00 %
19.06.2023 14:06 27,9 C 32,2 C 26,1 C 53 % 1013,2 hPa 0,0 l/m 2 min 0 min 871 W/m 16,1 km/h (3 Bft) 100,00 %
19.06.2023 14:08 27,9 C 32,2 C 26,1 C 53 % 1013,1 hPa 0,0 l/m 2 min 0 min 836 W/m 12,9 km/h (3 Bft) 100,00 %
19.06.2023 14:10 27,9 C 31,7 C 25,6 C 54 % 1013,1 hPa 0,0 l/m 2 min 0 min 788 W/m 12,9 km/h (3 Bft) 100,00 %
19.06.2023 14:12 27,9 C 31,7 C 25,6 C 54 % 1013,0 hPa 0,0 l/m 2 min 0 min 721 W/m 12,9 km/h (3 Bft) 100,00 %
19.06.2023 14:14 27,9 C 30,6 C 25,0 C 54 % 1013,1 hPa 0,0 l/m 2 min 0 min 598 W/m 12,9 km/h (3 Bft) 97,87 %
19.06.2023 14:16 27,9 C 29,4 C 25,0 C 53 % 1013,0 hPa 0,0 l/m 2 min 0 min 492 W/m 6,4 km/h (2 Bft) 100,00 %
19.06.2023 14:18 27,8 C 28,9 C 25,0 C 53 % 1013,1 hPa 0,0 l/m 0 min 0 min 449 W/m 12,9 km/h (3 Bft) 100,00 %
19.06.2023 14:20 27,8 C 28,9 C 25,0 C 54 % 1013,1 hPa 0,0 l/m 2 min 0 min 458 W/m 6,4 km/h (2 Bft) 100,00 %
19.06.2023 14:22 27,8 C 28,9 C 25,0 C 54 % 1013,1 hPa 0,0 l/m 0 min 0 min 442 W/m 6,4 km/h (2 Bft) 100,00 %
19.06.2023 14:24 27,8 C 28,3 C 24,4 C 54 % 1013,1 hPa 0,0 l/m 0 min 0 min 416 W/m 6,4 km/h (2 Bft) 100,00 %
19.06.2023 14:26 27,8 C 28,3 C 24,4 C 54 % 1013,1 hPa 0,0 l/m 0 min 0 min 432 W/m 6,4 km/h (2 Bft) 100,00 %
19.06.2023 14:28 27,8 C 28,3 C 24,4 C 54 % 1013,2 hPa 0,0 l/m 0 min 0 min 438 W/m 9,7 km/h (2 Bft) 97,87 %
19.06.2023 14:30 27,8 C 28,3 C 24,4 C 54 % 1013,1 hPa 0,0 l/m 0 min 0 min 444 W/m 12,9 km/h (3 Bft) 100,00 %
19.06.2023 14:32 27,8 C 29,4 C 24,4 C 54 % 1013,2 hPa 0,0 l/m 2 min 0 min 529 W/m 6,4 km/h (2 Bft) 100,00 %
19.06.2023 14:36 27,6 C 28,3 C 24,4 C 53 % 1013,2 hPa 0,0 l/m 4 min 0 min 511 W/m 22,5 km/h (4 Bft) 100,00 %
19.06.2023 14:38 27,6 C 28,3 C 24,4 C 54 % 1013,1 hPa 0,0 l/m 2 min 0 min 471 W/m 16,1 km/h (3 Bft) 100,00 %
19.06.2023 14:40 27,6 C 28,9 C 24,4 C 55 % 1013,2 hPa 0,0 l/m 2 min 0 min 551 W/m 9,7 km/h (2 Bft) 100,00 %
19.06.2023 14:42 27,6 C 29,4 C 24,4 C 54 % 1013,2 hPa 0,0 l/m 2 min 0 min 679 W/m 12,9 km/h (3 Bft) 100,00 %
19.06.2023 14:44 27,6 C 30,0 C 24,4 C 55 % 1013,2 hPa 0,0 l/m 2 min 0 min 771 W/m 9,7 km/h (2 Bft) 100,00 %
19.06.2023 14:46 27,6 C 31,1 C 24,4 C 54 % 1013,2 hPa 0,0 l/m 2 min 0 min 900 W/m 22,5 km/h (4 Bft) 100,00 %
19.06.2023 14:48 27,7 C 32,2 C 24,4 C 54 % 1013,2 hPa 0,0 l/m 2 min 0 min 944 W/m 6,4 km/h (2 Bft) 100,00 %
19.06.2023 14:50 27,9 C 32,8 C 25,0 C 54 % 1013,2 hPa 0,0 l/m 2 min 0 min 932 W/m 19,3 km/h (3 Bft) 97,87 %
19.06.2023 14:52 28,0 C 32,8 C 24,4 C 54 % 1013,2 hPa 0,0 l/m 2 min 0 min 852 W/m 16,1 km/h (3 Bft) 100,00 %
19.06.2023 14:54 28,1 C 32,8 C 24,4 C 53 % 1013,2 hPa 0,0 l/m 2 min 0 min 890 W/m 19,3 km/h (3 Bft) 97,87 %
19.06.2023 14:56 28,1 C 32,8 C 24,4 C 52 % 1013,3 hPa 0,0 l/m 2 min 0 min 885 W/m 19,3 km/h (3 Bft) 95,74 %
19.06.2023 14:58 28,1 C 32,2 C 24,4 C 52 % 1013,2 hPa 0,0 l/m 2 min 0 min 873 W/m 12,9 km/h (3 Bft) 95,74 %
19.06.2023 15:00 28,2 C 32,2 C 23,9 C 52 % 1013,2 hPa 0,0 l/m 2 min 0 min 868 W/m 12,9 km/h (3 Bft) 93,62 %
19.06.2023 15:02 28,2 C 33,3 C 23,9 C 53 % 1013,2 hPa 0,0 l/m 2 min 0 min 890 W/m 6,4 km/h (2 Bft) 95,74 %
19.06.2023 15:04 28,3 C 33,9 C 24,4 C 53 % 1013,1 hPa 0,0 l/m 2 min 0 min 881 W/m 6,4 km/h (2 Bft) 97,96 %
19.06.2023 15:06 28,5 C 33,9 C 24,4 C 52 % 1013,1 hPa 0,0 l/m 2 min 0 min 879 W/m 6,4 km/h (2 Bft) 95,74 %
19.06.2023 15:08 28,6 C 33,9 C 24,4 C 52 % 1013,1 hPa 0,0 l/m 2 min 0 min 846 W/m 12,9 km/h (3 Bft) 94,29 %
19.06.2023 15:10 28,7 C 33,9 C 24,4 C 52 % 1013,1 hPa 0,0 l/m 2 min 0 min 889 W/m 12,9 km/h (3 Bft) 95,65 %
19.06.2023 15:12 28,8 C 33,9 C 24,4 C 51 % 1013,1 hPa 0,0 l/m 2 min 0 min 886 W/m 9,7 km/h (2 Bft) 95,74 %
19.06.2023 15:14 28,8 C 33,3 C 23,9 C 51 % 1013,0 hPa 0,0 l/m 2 min 0 min 850 W/m 6,4 km/h (2 Bft) 93,62 %
19.06.2023 15:16 28,9 C 33,3 C 23,9 C 50 % 1013,0 hPa 0,0 l/m 2 min 0 min 850 W/m 19,3 km/h (3 Bft) 95,74 %
19.06.2023 15:18 29,0 C 33,3 C 23,9 C 51 % 1013,0 hPa 0,0 l/m 2 min 0 min 858 W/m 12,9 km/h (3 Bft) 95,74 %
19.06.2023 15:20 29,1 C 33,3 C 23,9 C 52 % 1012,9 hPa 0,0 l/m 2 min 0 min 860 W/m 12,9 km/h (3 Bft) 93,62 %
19.06.2023 15:22 29,1 C 33,3 C 23,9 C 51 % 1012,9 hPa 0,0 l/m 2 min 0 min 850 W/m 9,7 km/h (2 Bft) 95,74 %
19.06.2023 15:24 29,2 C 33,9 C 23,9 C 51 % 1012,9 hPa 0,0 l/m 2 min 0 min 843 W/m 9,7 km/h (2 Bft) 93,48 %
19.06.2023 15:26 29,2 C 33,3 C 23,9 C 50 % 1012,9 hPa 0,0 l/m 2 min 0 min 831 W/m 12,9 km/h (3 Bft) 95,74 %
19.06.2023 15:28 29,2 C 33,3 C 23,9 C 50 % 1012,8 hPa 0,0 l/m 2 min 0 min 840 W/m 6,4 km/h (2 Bft) 93,62 %
19.06.2023 15:30 29,2 C 33,3 C 23,9 C 50 % 1012,9 hPa 0,0 l/m 2 min 0 min 844 W/m 6,4 km/h (2 Bft) 95,74 %
19.06.2023 15:32 29,2 C 33,3 C 23,9 C 50 % 1012,9 hPa 0,0 l/m 2 min 0 min 835 W/m 9,7 km/h (2 Bft) 97,87 %
19.06.2023 15:34 29,2 C 33,3 C 23,9 C 50 % 1012,9 hPa 0,0 l/m 2 min 0 min 839 W/m 16,1 km/h (3 Bft) 95,74 %
19.06.2023 15:36 29,2 C 32,8 C 23,9 C 51 % 1012,9 hPa 0,0 l/m 2 min 0 min 827 W/m 9,7 km/h (2 Bft) 93,62 %
19.06.2023 15:38 29,1 C 32,8 C 23,9 C 50 % 1013,0 hPa 0,0 l/m 2 min 0 min 822 W/m 22,5 km/h (4 Bft) 91,49 %
19.06.2023 15:40 29,1 C 32,8 C 23,9 C 50 % 1012,9 hPa 0,0 l/m 2 min 0 min 825 W/m 9,7 km/h (2 Bft) 97,83 %
19.06.2023 15:42 29,1 C 32,8 C 23,9 C 51 % 1012,9 hPa 0,0 l/m 2 min 0 min 826 W/m 16,1 km/h (3 Bft) 97,87 %
19.06.2023 15:44 29,1 C 32,2 C 23,9 C 50 % 1012,9 hPa 0,0 l/m 2 min 0 min 813 W/m 19,3 km/h (3 Bft) 100,00 %
19.06.2023 15:46 29,1 C 32,2 C 23,9 C 51 % 1012,9 hPa 0,0 l/m 2 min 0 min 796 W/m 9,7 km/h (2 Bft) 100,00 %
19.06.2023 15:48 28,9 C 32,2 C 23,9 C 50 % 1012,9 hPa 0,0 l/m 2 min 0 min 798 W/m 12,9 km/h (3 Bft) 97,87 %
19.06.2023 15:50 28,9 C 32,8 C 23,9 C 51 % 1012,8 hPa 0,0 l/m 2 min 0 min 799 W/m 9,7 km/h (2 Bft) 95,74 %
19.06.2023 15:52 29,0 C 32,8 C 23,9 C 51 % 1012,8 hPa 0,0 l/m 2 min 0 min 796 W/m 9,7 km/h (2 Bft) 95,65 %
19.06.2023 15:54 29,0 C 32,8 C 23,9 C 51 % 1012,8 hPa 0,0 l/m 2 min 0 min 799 W/m 12,9 km/h (3 Bft) 95,74 %
19.06.2023 15:56 29,1 C 32,8 C 23,9 C 50 % 1012,8 hPa 0,0 l/m 2 min 0 min 795 W/m 9,7 km/h (2 Bft) 97,87 %
19.06.2023 15:58 29,1 C 32,8 C 23,9 C 50 % 1012,8 hPa 0,0 l/m 2 min 0 min 803 W/m 12,9 km/h (3 Bft) 97,87 %
19.06.2023 16:00 29,1 C 33,3 C 23,9 C 51 % 1012,8 hPa 0,0 l/m 2 min 0 min 795 W/m 6,4 km/h (2 Bft) 97,87 %
19.06.2023 16:02 29,2 C 33,3 C 23,9 C 50 % 1012,8 hPa 0,0 l/m 2 min 0 min 799 W/m 12,9 km/h (3 Bft) 97,87 %
19.06.2023 16:04 29,2 C 33,3 C 24,4 C 50 % 1012,8 hPa 0,0 l/m 2 min 0 min 792 W/m 12,9 km/h (3 Bft) 98,04 %
19.06.2023 16:06 29,3 C 33,9 C 24,4 C 50 % 1012,7 hPa 0,0 l/m 2 min 0 min 779 W/m 12,9 km/h (3 Bft) 96,55 %
19.06.2023 16:08 29,4 C 33,3 C 24,4 C 51 % 1012,7 hPa 0,0 l/m 2 min 0 min 778 W/m 9,7 km/h (2 Bft) 97,14 %
19.06.2023 16:10 29,4 C 33,9 C 24,4 C 51 % 1012,7 hPa 0,0 l/m 2 min 0 min 762 W/m 12,9 km/h (3 Bft) 97,87 %
19.06.2023 16:12 29,4 C 33,9 C 24,4 C 50 % 1012,7 hPa 0,0 l/m 2 min 0 min 759 W/m 9,7 km/h (2 Bft) 97,87 %
19.06.2023 16:14 29,5 C 33,9 C 24,4 C 50 % 1012,7 hPa 0,0 l/m 2 min 0 min 759 W/m 6,4 km/h (2 Bft) 97,87 %
19.06.2023 16:16 29,6 C 33,3 C 24,4 C 49 % 1012,7 hPa 0,0 l/m 2 min 0 min 730 W/m 9,7 km/h (2 Bft) 97,87 %
19.06.2023 16:18 29,6 C 33,3 C 24,4 C 49 % 1012,7 hPa 0,0 l/m 2 min 0 min 710 W/m 9,7 km/h (2 Bft) 97,87 %
19.06.2023 16:20 29,6 C 33,3 C 24,4 C 48 % 1012,7 hPa 0,0 l/m 2 min 0 min 750 W/m 6,4 km/h (2 Bft) 97,87 %
19.06.2023 16:22 29,7 C 33,3 C 24,4 C 48 % 1012,8 hPa 0,0 l/m 2 min 0 min 728 W/m 12,9 km/h (3 Bft) 95,65 %
19.06.2023 16:24 29,7 C 33,3 C 24,4 C 48 % 1012,7 hPa 0,0 l/m 2 min 0 min 733 W/m 12,9 km/h (3 Bft) 97,87 %
19.06.2023 16:26 29,6 C 32,8 C 24,4 C 48 % 1012,7 hPa 0,0 l/m 2 min 0 min 740 W/m 9,7 km/h (2 Bft) 97,87 %
19.06.2023 16:28 29,5 C 32,8 C 24,4 C 48 % 1012,7 hPa 0,0 l/m 2 min 0 min 733 W/m 16,1 km/h (3 Bft) 97,87 %
19.06.2023 16:30 29,4 C 32,8 C 23,9 C 48 % 1012,7 hPa 0,0 l/m 2 min 0 min 716 W/m 12,9 km/h (3 Bft) 97,87 %
19.06.2023 16:32 29,4 C 32,8 C 24,4 C 49 % 1012,6 hPa 0,0 l/m 2 min 0 min 722 W/m 16,1 km/h (3 Bft) 97,87 %
19.06.2023 16:34 29,4 C 32,8 C 24,4 C 49 % 1012,6 hPa 0,0 l/m 2 min 0 min 718 W/m 12,9 km/h (3 Bft) 97,87 %
19.06.2023 16:36 29,3 C 32,8 C 24,4 C 48 % 1012,6 hPa 0,0 l/m 2 min 0 min 713 W/m 6,4 km/h (2 Bft) 100,00 %
19.06.2023 16:38 29,4 C 32,8 C 24,4 C 49 % 1012,7 hPa 0,0 l/m 2 min 0 min 685 W/m 12,9 km/h (3 Bft) 97,87 %
19.06.2023 16:40 29,4 C 32,8 C 24,4 C 49 % 1012,6 hPa 0,0 l/m 2 min 0 min 689 W/m 19,3 km/h (3 Bft) 100,00 %
19.06.2023 16:42 29,4 C 33,3 C 24,4 C 49 % 1012,6 hPa 0,0 l/m 2 min 0 min 721 W/m 6,4 km/h (2 Bft) 97,14 %
19.06.2023 16:44 29,4 C 32,8 C 24,4 C 49 % 1012,6 hPa 0,0 l/m 2 min 0 min 716 W/m 12,9 km/h (3 Bft) 98,08 %
19.06.2023 16:46 29,4 C 33,3 C 24,4 C 49 % 1012,5 hPa 0,0 l/m 2 min 0 min 710 W/m 12,9 km/h (3 Bft) 100,00 %
19.06.2023 16:48 29,4 C 33,3 C 24,4 C 48 % 1012,5 hPa 0,0 l/m 2 min 0 min 702 W/m 12,9 km/h (3 Bft) 95,35 %
19.06.2023 16:50 29,4 C 33,3 C 24,4 C 48 % 1012,5 hPa 0,0 l/m 2 min 0 min 703 W/m 9,7 km/h (2 Bft) 97,87 %
19.06.2023 16:52 29,5 C 33,3 C 24,4 C 50 % 1012,5 hPa 0,0 l/m 2 min 0 min 693 W/m 12,9 km/h (3 Bft) 97,96 %
19.06.2023 16:54 29,6 C 33,9 C 24,4 C 49 % 1012,5 hPa 0,0 l/m 2 min 0 min 681 W/m 6,4 km/h (2 Bft) 97,87 %
19.06.2023 16:56 29,6 C 33,9 C 24,4 C 49 % 1012,5 hPa 0,0 l/m 2 min 0 min 669 W/m 6,4 km/h (2 Bft) 97,87 %
19.06.2023 16:58 29,6 C 32,8 C 24,4 C 48 % 1012,5 hPa 0,0 l/m 2 min 0 min 662 W/m 6,4 km/h (2 Bft) 97,87 %
19.06.2023 17:00 29,5 C 33,3 C 24,4 C 49 % 1012,5 hPa 0,0 l/m 2 min 0 min 675 W/m 6,4 km/h (2 Bft) 97,87 %
19.06.2023 17:02 29,4 C 33,3 C 24,4 C 48 % 1012,5 hPa 0,0 l/m 2 min 0 min 662 W/m 16,1 km/h (3 Bft) 97,87 %
19.06.2023 17:04 29,4 C 33,3 C 24,4 C 48 % 1012,5 hPa 0,0 l/m 2 min 0 min 670 W/m 16,1 km/h (3 Bft) 97,87 %
19.06.2023 17:06 29,4 C 33,9 C 24,4 C 48 % 1012,5 hPa 0,0 l/m 2 min 0 min 663 W/m 9,7 km/h (2 Bft) 96,55 %
19.06.2023 17:08 29,4 C 33,9 C 25,0 C 47 % 1012,5 hPa 0,0 l/m 2 min 0 min 656 W/m 9,7 km/h (2 Bft) 100,00 %
19.06.2023 17:10 29,5 C 33,3 C 24,4 C 47 % 1012,4 hPa 0,0 l/m 2 min 0 min 651 W/m 12,9 km/h (3 Bft) 97,87 %
19.06.2023 17:12 29,6 C 33,9 C 25,0 C 48 % 1012,4 hPa 0,0 l/m 2 min 0 min 647 W/m 9,7 km/h (2 Bft) 95,74 %
19.06.2023 17:14 29,6 C 33,9 C 25,0 C 48 % 1012,5 hPa 0,0 l/m 2 min 0 min 633 W/m 12,9 km/h (3 Bft) 97,87 %
19.06.2023 17:18 29,6 C 33,9 C 25,0 C 49 % 1012,4 hPa 0,0 l/m 4 min 0 min 631 W/m 12,9 km/h (3 Bft) 96,91 %
19.06.2023 17:20 29,5 C 33,9 C 24,4 C 48 % 1012,4 hPa 0,0 l/m 2 min 0 min 627 W/m 6,4 km/h (2 Bft) 97,87 %
19.06.2023 17:22 29,5 C 33,9 C 25,0 C 48 % 1012,4 hPa 0,0 l/m 2 min 0 min 591 W/m 9,7 km/h (2 Bft) 97,87 %
19.06.2023 17:24 29,6 C 33,9 C 25,0 C 48 % 1012,4 hPa 0,0 l/m 2 min 0 min 608 W/m 9,7 km/h (2 Bft) 100,00 %
19.06.2023 17:26 29,6 C 33,3 C 25,0 C 47 % 1012,4 hPa 0,0 l/m 2 min 0 min 604 W/m 9,7 km/h (2 Bft) 95,74 %
19.06.2023 17:28 29,6 C 33,3 C 25,0 C 47 % 1012,4 hPa 0,0 l/m 2 min 0 min 603 W/m 6,4 km/h (2 Bft) 97,87 %
19.06.2023 17:30 29,6 C 33,9 C 24,4 C 47 % 1012,4 hPa 0,0 l/m 2 min 0 min 605 W/m 6,4 km/h (2 Bft) 97,87 %
19.06.2023 17:32 29,6 C 33,9 C 24,4 C 47 % 1012,4 hPa 0,0 l/m 2 min 0 min 598 W/m 6,4 km/h (2 Bft) 97,87 %
19.06.2023 17:34 29,6 C 33,9 C 24,4 C 48 % 1012,4 hPa 0,0 l/m 2 min 0 min 597 W/m 3,2 km/h (1 Bft) 97,83 %
19.06.2023 17:36 29,6 C 33,9 C 24,4 C 48 % 1012,4 hPa 0,0 l/m 2 min 0 min 592 W/m 12,9 km/h (3 Bft) 95,92 %
19.06.2023 17:38 29,6 C 33,3 C 24,4 C 48 % 1012,5 hPa 0,0 l/m 2 min 0 min 583 W/m 12,9 km/h (3 Bft) 95,74 %
19.06.2023 17:40 29,6 C 33,9 C 25,0 C 49 % 1012,4 hPa 0,0 l/m 2 min 0 min 578 W/m 6,4 km/h (2 Bft) 97,87 %
19.06.2023 17:42 29,6 C 33,3 C 25,0 C 47 % 1012,4 hPa 0,0 l/m 2 min 0 min 569 W/m 6,4 km/h (2 Bft) 97,14 %
19.06.2023 17:44 29,6 C 32,8 C 24,4 C 48 % 1012,3 hPa 0,0 l/m 2 min 0 min 578 W/m 6,4 km/h (2 Bft) 98,18 %
19.06.2023 17:46 29,5 C 32,2 C 23,9 C 47 % 1012,3 hPa 0,0 l/m 2 min 0 min 564 W/m 6,4 km/h (2 Bft) 97,87 %
19.06.2023 17:48 29,4 C 32,8 C 24,4 C 48 % 1012,3 hPa 0,0 l/m 2 min 0 min 525 W/m 6,4 km/h (2 Bft) 97,96 %
19.06.2023 17:50 29,4 C 33,3 C 24,4 C 48 % 1012,2 hPa 0,0 l/m 2 min 0 min 556 W/m 6,4 km/h (2 Bft) 97,22 %
19.06.2023 17:52 29,4 C 33,9 C 25,0 C 48 % 1012,2 hPa 0,0 l/m 2 min 0 min 577 W/m 9,7 km/h (2 Bft) 97,87 %
19.06.2023 17:54 29,4 C 33,9 C 25,0 C 48 % 1012,2 hPa 0,0 l/m 2 min 0 min 566 W/m 12,9 km/h (3 Bft) 96,36 %
19.06.2023 17:56 29,4 C 33,9 C 25,0 C 49 % 1012,2 hPa 0,0 l/m 2 min 0 min 547 W/m 6,4 km/h (2 Bft) 98,00 %
19.06.2023 17:58 29,4 C 33,9 C 25,0 C 48 % 1012,2 hPa 0,0 l/m 2 min 0 min 533 W/m 6,4 km/h (2 Bft) 97,22 %
19.06.2023 18:00 29,4 C 33,9 C 25,0 C 48 % 1012,1 hPa 0,0 l/m 2 min 0 min 525 W/m 6,4 km/h (2 Bft) 95,74 %
19.06.2023 18:02 29,5 C 33,3 C 25,0 C 48 % 1012,1 hPa 0,0 l/m 2 min 0 min 519 W/m 6,4 km/h (2 Bft) 98,15 %
19.06.2023 18:04 29,5 C 33,9 C 25,0 C 49 % 1012,1 hPa 0,0 l/m 2 min 0 min 513 W/m 3,2 km/h (1 Bft) 97,87 %
19.06.2023 18:08 29,5 C 33,9 C 25,0 C 49 % 1012,0 hPa 0,0 l/m 4 min 0 min 503 W/m 12,9 km/h (3 Bft) 97,96 %
19.06.2023 18:10 29,4 C 33,9 C 25,0 C 48 % 1012,1 hPa 0,0 l/m 2 min 0 min 495 W/m 9,7 km/h (2 Bft) 93,62 %
19.06.2023 18:12 29,4 C 33,9 C 25,0 C 48 % 1012,1 hPa 0,0 l/m 2 min 0 min 487 W/m 9,7 km/h (2 Bft) 97,87 %
19.06.2023 18:14 29,5 C 34,4 C 25,0 C 48 % 1012,1 hPa 0,0 l/m 2 min 0 min 481 W/m 25,7 km/h (4 Bft) 100,00 %
19.06.2023 18:16 29,4 C 33,9 C 25,0 C 47 % 1012,1 hPa 0,0 l/m 2 min 0 min 474 W/m 12,9 km/h (3 Bft) 100,00 %
19.06.2023 18:18 29,4 C 33,9 C 25,0 C 47 % 1012,1 hPa 0,0 l/m 2 min 0 min 468 W/m 9,7 km/h (2 Bft) 93,62 %
19.06.2023 18:20 29,5 C 34,4 C 25,6 C 48 % 1012,1 hPa 0,0 l/m 2 min 0 min 463 W/m 9,7 km/h (2 Bft) 95,74 %
19.06.2023 18:22 29,6 C 34,4 C 25,6 C 48 % 1012,1 hPa 0,0 l/m 2 min 0 min 457 W/m 6,4 km/h (2 Bft) 97,87 %
19.06.2023 18:24 29,7 C 34,4 C 25,6 C 49 % 1012,1 hPa 0,0 l/m 2 min 0 min 449 W/m 6,4 km/h (2 Bft) 97,87 %
19.06.2023 18:26 29,7 C 33,9 C 25,6 C 49 % 1012,0 hPa 0,0 l/m 2 min 0 min 445 W/m 9,7 km/h (2 Bft) 97,87 %
19.06.2023 18:28 29,7 C 33,3 C 25,0 C 47 % 1012,1 hPa 0,0 l/m 2 min 0 min 441 W/m 12,9 km/h (3 Bft) 89,36 %
19.06.2023 18:30 29,7 C 33,9 C 25,6 C 47 % 1012,1 hPa 0,0 l/m 2 min 0 min 436 W/m 6,4 km/h (2 Bft) 93,48 %
19.06.2023 18:32 29,7 C 34,4 C 25,0 C 46 % 1012,0 hPa 0,0 l/m 2 min 0 min 434 W/m 3,2 km/h (1 Bft) 93,62 %
19.06.2023 18:34 29,7 C 33,3 C 25,0 C 46 % 1012,0 hPa 0,0 l/m 2 min 0 min 426 W/m 3,2 km/h (1 Bft) 97,87 %
19.06.2023 18:36 29,6 C 32,2 C 24,4 C 46 % 1012,0 hPa 0,0 l/m 2 min 0 min 417 W/m 3,2 km/h (1 Bft) 93,62 %
19.06.2023 18:38 29,4 C 32,8 C 25,0 C 47 % 1012,0 hPa 0,0 l/m 2 min 0 min 413 W/m 3,2 km/h (1 Bft) 95,74 %
19.06.2023 18:40 29,5 C 33,9 C 25,0 C 48 % 1012,0 hPa 0,0 l/m 2 min 0 min 409 W/m 6,4 km/h (2 Bft) 95,74 %
19.06.2023 18:42 29,6 C 33,9 C 25,6 C 48 % 1012,0 hPa 0,0 l/m 2 min 0 min 402 W/m 9,7 km/h (2 Bft) 95,74 %
19.06.2023 18:44 29,7 C 33,9 C 25,6 C 46 % 1012,0 hPa 0,0 l/m 2 min 0 min 405 W/m 9,7 km/h (2 Bft) 95,65 %
19.06.2023 18:46 29,8 C 33,9 C 25,6 C 46 % 1012,0 hPa 0,0 l/m 2 min 0 min 399 W/m 6,4 km/h (2 Bft) 95,74 %
19.06.2023 18:48 29,8 C 33,9 C 25,6 C 46 % 1012,0 hPa 0,0 l/m 2 min 0 min 393 W/m 6,4 km/h (2 Bft) 91,49 %
19.06.2023 18:50 29,9 C 33,9 C 25,6 C 45 % 1012,0 hPa 0,0 l/m 2 min 0 min 384 W/m 3,2 km/h (1 Bft) 95,74 %
19.06.2023 18:52 29,9 C 33,9 C 25,6 C 45 % 1012,0 hPa 0,0 l/m 2 min 0 min 381 W/m 9,7 km/h (2 Bft) 95,74 %
19.06.2023 18:54 29,9 C 33,9 C 25,6 C 46 % 1012,0 hPa 0,0 l/m 2 min 0 min 371 W/m 6,4 km/h (2 Bft) 95,74 %
19.06.2023 18:55 29,9 C 34,4 C 25,6 C 47 % 1012,0 hPa 0,0 l/m 1 min 0 min 372 W/m 9,7 km/h (2 Bft) 98,25 %
19.06.2023 19:00 30,1 C 34,4 C 25,6 C 46 % 1012,0 hPa 0,0 l/m 5 min 0 min 359 W/m 6,4 km/h (2 Bft) 98,04 %
19.06.2023 19:02 30,1 C 33,9 C 25,6 C 47 % 1012,0 hPa 0,0 l/m 2 min 0 min 352 W/m 6,4 km/h (2 Bft) 95,74 %
19.06.2023 19:04 30,1 C 33,3 C 25,6 C 46 % 1012,0 hPa 0,0 l/m 2 min 0 min 344 W/m 6,4 km/h (2 Bft) 97,96 %
19.06.2023 19:06 29,9 C 32,8 C 25,6 C 46 % 1012,1 hPa 0,0 l/m 2 min 0 min 332 W/m 9,7 km/h (2 Bft) 98,11 %
19.06.2023 19:08 29,9 C 33,3 C 25,6 C 46 % 1012,1 hPa 0,0 l/m 2 min 0 min 328 W/m 3,2 km/h (1 Bft) 97,14 %
19.06.2023 19:10 29,9 C 33,3 C 25,0 C 46 % 1012,0 hPa 0,0 l/m 2 min 0 min 323 W/m 3,2 km/h (1 Bft) 97,87 %
19.06.2023 19:12 29,9 C 32,8 C 25,0 C 46 % 1012,0 hPa 0,0 l/m 2 min 0 min 319 W/m 3,2 km/h (1 Bft) 97,87 %
19.06.2023 19:14 29,8 C 32,8 C 25,0 C 47 % 1012,0 hPa 0,0 l/m 2 min 0 min 314 W/m 3,2 km/h (1 Bft) 95,74 %
19.06.2023 19:16 29,8 C 32,8 C 25,0 C 46 % 1012,0 hPa 0,0 l/m 2 min 0 min 304 W/m 12,9 km/h (3 Bft) 97,83 %
19.06.2023 19:18 29,7 C 32,8 C 24,4 C 46 % 1012,0 hPa 0,0 l/m 2 min 0 min 300 W/m 6,4 km/h (2 Bft) 95,74 %
19.06.2023 19:20 29,7 C 32,8 C 24,4 C 46 % 1012,0 hPa 0,0 l/m 2 min 0 min 302 W/m 0,0 km/h (0 Bft) 100,00 %
19.06.2023 19:22 29,7 C 32,2 C 24,4 C 46 % 1012,0 hPa 0,0 l/m 2 min 0 min 286 W/m 3,2 km/h (1 Bft) 95,74 %
19.06.2023 19:24 29,7 C 31,7 C 24,4 C 47 % 1012,0 hPa 0,0 l/m 2 min 0 min 217 W/m 6,4 km/h (2 Bft) 100,00 %
19.06.2023 19:26 29,6 C 31,1 C 24,4 C 48 % 1012,0 hPa 0,0 l/m 2 min 0 min 240 W/m 6,4 km/h (2 Bft) 100,00 %
19.06.2023 19:28 29,4 C 30,6 C 23,9 C 49 % 1012,0 hPa 0,0 l/m 2 min 0 min 255 W/m 6,4 km/h (2 Bft) 100,00 %
19.06.2023 19:30 29,3 C 30,6 C 23,9 C 48 % 1011,9 hPa 0,0 l/m 2 min 0 min 242 W/m 3,2 km/h (1 Bft) 100,00 %
19.06.2023 19:32 29,2 C 30,0 C 23,9 C 49 % 1012,0 hPa 0,0 l/m 2 min 0 min 199 W/m 3,2 km/h (1 Bft) 100,00 %
19.06.2023 19:34 29,1 C 29,4 C 23,9 C 49 % 1011,9 hPa 0,0 l/m 2 min 0 min 187 W/m 3,2 km/h (1 Bft) 100,00 %
19.06.2023 19:36 28,9 C 28,9 C 23,9 C 49 % 1011,9 hPa 0,0 l/m 2 min 0 min 195 W/m 3,2 km/h (1 Bft) 100,00 %
19.06.2023 19:38 28,7 C 28,3 C 23,3 C 49 % 1011,9 hPa 0,0 l/m 2 min 0 min 213 W/m 6,4 km/h (2 Bft) 100,00 %
19.06.2023 19:40 28,6 C 27,8 C 23,3 C 49 % 1011,9 hPa 0,0 l/m 2 min 0 min 159 W/m 6,4 km/h (2 Bft) 100,00 %
19.06.2023 19:42 28,6 C 27,2 C 23,3 C 50 % 1011,9 hPa 0,0 l/m 2 min 0 min 153 W/m 3,2 km/h (1 Bft) 100,00 %
19.06.2023 19:44 28,4 C 27,2 C 23,3 C 50 % 1011,9 hPa 0,0 l/m 2 min 0 min 214 W/m 6,4 km/h (2 Bft) 97,83 %
19.06.2023 19:46 28,4 C 27,2 C 23,3 C 50 % 1011,9 hPa 0,0 l/m 2 min 0 min 174 W/m 3,2 km/h (1 Bft) 100,00 %
19.06.2023 19:48 28,4 C 27,2 C 23,3 C 51 % 1011,9 hPa 0,0 l/m 0 min 0 min 132 W/m 6,4 km/h (2 Bft) 100,00 %
19.06.2023 19:50 28,4 C 27,2 C 23,3 C 50 % 1011,9 hPa 0,0 l/m 0 min 0 min 129 W/m 9,7 km/h (2 Bft) 97,87 %
19.06.2023 19:52 28,3 C 27,2 C 23,3 C 51 % 1011,9 hPa 0,0 l/m 0 min 0 min 126 W/m 3,2 km/h (1 Bft) 100,00 %
19.06.2023 19:54 28,3 C 27,2 C 23,3 C 50 % 1011,9 hPa 0,0 l/m 0 min 0 min 121 W/m 6,4 km/h (2 Bft) 100,00 %
19.06.2023 19:56 28,2 C 27,2 C 23,3 C 50 % 1011,8 hPa 0,0 l/m 0 min 0 min 120 W/m 6,4 km/h (2 Bft) 100,00 %
19.06.2023 19:58 28,1 C 27,2 C 23,3 C 52 % 1011,9 hPa 0,0 l/m 0 min 0 min 117 W/m 3,2 km/h (1 Bft) 97,87 %
19.06.2023 20:00 28,1 C 27,2 C 23,3 C 51 % 1011,9 hPa 0,0 l/m 0 min 0 min 112 W/m 3,2 km/h (1 Bft) 100,00 %
19.06.2023 20:02 27,9 C 26,7 C 23,3 C 51 % 1011,9 hPa 0,0 l/m 0 min 0 min 103 W/m 3,2 km/h (1 Bft) 97,87 %
19.06.2023 20:04 27,9 C 26,7 C 22,8 C 52 % 1011,9 hPa 0,0 l/m 0 min 0 min 94 W/m 3,2 km/h (1 Bft) 100,00 %
19.06.2023 20:06 27,8 C 26,7 C 23,3 C 51 % 1012,0 hPa 0,0 l/m 0 min 0 min 91 W/m 6,4 km/h (2 Bft) 96,55 %
19.06.2023 20:08 27,8 C 26,7 C 22,8 C 51 % 1012,0 hPa 0,0 l/m 0 min 0 min 86 W/m 0,0 km/h (0 Bft) 97,62 %
19.06.2023 20:10 27,8 C 26,7 C 22,8 C 52 % 1012,1 hPa 0,0 l/m 0 min 0 min 81 W/m 3,2 km/h (1 Bft) 96,00 %
19.06.2023 20:12 27,7 C 26,7 C 22,8 C 52 % 1012,1 hPa 0,0 l/m 0 min 0 min 76 W/m 3,2 km/h (1 Bft) 95,74 %
19.06.2023 20:14 27,6 C 26,7 C 22,8 C 51 % 1012,1 hPa 0,0 l/m 0 min 0 min 71 W/m 9,7 km/h (2 Bft) 97,87 %
19.06.2023 20:16 27,6 C 26,1 C 22,8 C 52 % 1012,1 hPa 0,0 l/m 0 min 0 min 67 W/m 3,2 km/h (1 Bft) 95,74 %
19.06.2023 20:18 27,6 C 26,1 C 22,8 C 53 % 1012,1 hPa 0,0 l/m 0 min 0 min 64 W/m 0,0 km/h (0 Bft) 97,87 %
19.06.2023 20:20 27,5 C 26,1 C 22,8 C 51 % 1012,0 hPa 0,0 l/m 0 min 0 min 61 W/m 6,4 km/h (2 Bft) 95,65 %
19.06.2023 20:22 27,4 C 26,1 C 22,8 C 52 % 1012,1 hPa 0,0 l/m 0 min 0 min 57 W/m 0,0 km/h (0 Bft) 95,74 %
19.06.2023 20:24 27,4 C 26,1 C 22,8 C 53 % 1012,0 hPa 0,0 l/m 0 min 0 min 54 W/m 3,2 km/h (1 Bft) 93,62 %
19.06.2023 20:26 27,4 C 26,1 C 22,8 C 53 % 1012,1 hPa 0,0 l/m 0 min 0 min 50 W/m 3,2 km/h (1 Bft) 95,74 %
19.06.2023 20:28 27,3 C 26,1 C 22,2 C 53 % 1012,1 hPa 0,0 l/m 0 min 0 min 48 W/m 0,0 km/h (0 Bft) 91,49 %
19.06.2023 20:30 27,3 C 25,6 C 22,2 C 54 % 1012,0 hPa 0,0 l/m 0 min 0 min 44 W/m 0,0 km/h (0 Bft) 95,74 %
19.06.2023 20:32 27,2 C 25,6 C 22,2 C 54 % 1012,1 hPa 0,0 l/m 0 min 0 min 42 W/m 0,0 km/h (0 Bft) 95,74 %
19.06.2023 20:34 27,1 C 25,6 C 22,2 C 54 % 1012,0 hPa 0,0 l/m 0 min 0 min 41 W/m 0,0 km/h (0 Bft) 95,65 %
19.06.2023 20:36 27,1 C 25,6 C 22,2 C 54 % 1012,1 hPa 0,0 l/m 0 min 0 min 40 W/m 3,2 km/h (1 Bft) 95,74 %
19.06.2023 20:38 27,1 C 25,6 C 22,2 C 55 % 1012,0 hPa 0,0 l/m 0 min 0 min 39 W/m 0,0 km/h (0 Bft) 95,74 %
19.06.2023 20:40 27,0 C 25,6 C 21,7 C 55 % 1012,0 hPa 0,0 l/m 0 min 0 min 39 W/m 6,4 km/h (2 Bft) 95,74 %
19.06.2023 20:42 26,9 C 25,0 C 21,7 C 55 % 1012,1 hPa 0,0 l/m 0 min 0 min 37 W/m 3,2 km/h (1 Bft) 95,74 %
19.06.2023 20:44 26,9 C 25,0 C 21,7 C 55 % 1012,0 hPa 0,0 l/m 0 min 0 min 37 W/m 6,4 km/h (2 Bft) 95,74 %
19.06.2023 20:46 26,9 C 25,0 C 22,2 C 55 % 1012,0 hPa 0,0 l/m 0 min 0 min 37 W/m 6,4 km/h (2 Bft) 95,74 %
19.06.2023 20:48 26,8 C 25,0 C 21,7 C 55 % 1012,1 hPa 0,0 l/m 0 min 0 min 39 W/m 3,2 km/h (1 Bft) 93,48 %
19.06.2023 20:50 26,8 C 25,0 C 21,7 C 56 % 1012,0 hPa 0,0 l/m 0 min 0 min 39 W/m 6,4 km/h (2 Bft) 97,87 %
19.06.2023 20:52 26,8 C 25,0 C 21,7 C 56 % 1012,0 hPa 0,0 l/m 0 min 0 min 39 W/m 0,0 km/h (0 Bft) 95,74 %
19.06.2023 20:54 26,7 C 25,0 C 21,7 C 56 % 1012,0 hPa 0,0 l/m 0 min 0 min 39 W/m 3,2 km/h (1 Bft) 100,00 %
19.06.2023 20:56 26,7 C 25,0 C 21,7 C 56 % 1012,0 hPa 0,0 l/m 0 min 0 min 37 W/m 0,0 km/h (0 Bft) 100,00 %
19.06.2023 20:58 26,7 C 25,0 C 21,7 C 57 % 1012,0 hPa 0,0 l/m 0 min 0 min 37 W/m 3,2 km/h (1 Bft) 100,00 %
19.06.2023 21:00 26,6 C 25,0 C 21,7 C 57 % 1011,9 hPa 0,0 l/m 0 min 0 min 34 W/m 3,2 km/h (1 Bft) 100,00 %
19.06.2023 21:02 26,5 C 25,0 C 21,7 C 57 % 1012,0 hPa 0,0 l/m 0 min 0 min 32 W/m 3,2 km/h (1 Bft) 97,87 %
19.06.2023 21:04 26,4 C 25,0 C 21,7 C 56 % 1011,9 hPa 0,0 l/m 0 min 0 min 29 W/m 9,7 km/h (2 Bft) 100,00 %
19.06.2023 21:06 26,3 C 25,0 C 21,7 C 56 % 1012,1 hPa 0,0 l/m 0 min 0 min 28 W/m 3,2 km/h (1 Bft) 100,00 %
19.06.2023 21:08 26,3 C 24,4 C 21,7 C 56 % 1012,0 hPa 0,0 l/m 0 min 0 min 26 W/m 0,0 km/h (0 Bft) 97,87 %
19.06.2023 21:10 26,3 C 24,4 C 21,7 C 59 % 1012,1 hPa 0,0 l/m 0 min 0 min 25 W/m 0,0 km/h (0 Bft) 100,00 %
19.06.2023 21:12 26,3 C 24,4 C 21,1 C 59 % 1012,0 hPa 0,0 l/m 0 min 0 min 24 W/m 0,0 km/h (0 Bft) 100,00 %
19.06.2023 21:14 26,2 C 24,4 C 21,1 C 59 % 1012,1 hPa 0,0 l/m 0 min 0 min 23 W/m 0,0 km/h (0 Bft) 100,00 %
19.06.2023 21:16 26,2 C 24,4 C 21,1 C 57 % 1012,1 hPa 0,0 l/m 0 min 0 min 21 W/m 0,0 km/h (0 Bft) 100,00 %
19.06.2023 21:18 26,1 C 24,4 C 21,1 C 58 % 1012,1 hPa 0,0 l/m 0 min 0 min 19 W/m 3,2 km/h (1 Bft) 100,00 %
19.06.2023 21:20 26,1 C 24,4 C 21,1 C 58 % 1012,1 hPa 0,0 l/m 0 min 0 min 18 W/m 3,2 km/h (1 Bft) 100,00 %
19.06.2023 21:22 26,0 C 24,4 C 21,1 C 59 % 1012,1 hPa 0,0 l/m 0 min 0 min 17 W/m 3,2 km/h (1 Bft) 100,00 %
19.06.2023 21:24 26,0 C 23,9 C 21,1 C 60 % 1012,1 hPa 0,0 l/m 0 min 0 min 15 W/m 0,0 km/h (0 Bft) 97,87 %
19.06.2023 21:26 25,9 C 23,9 C 21,1 C 60 % 1012,1 hPa 0,0 l/m 0 min 0 min 14 W/m 0,0 km/h (0 Bft) 100,00 %
19.06.2023 21:28 25,9 C 23,9 C 21,1 C 61 % 1012,1 hPa 0,0 l/m 0 min 0 min 12 W/m 0,0 km/h (0 Bft) 100,00 %
19.06.2023 21:30 25,8 C 23,9 C 20,6 C 60 % 1012,1 hPa 0,0 l/m 0 min 0 min 11 W/m 0,0 km/h (0 Bft) 100,00 %
19.06.2023 21:32 25,8 C 23,9 C 20,6 C 60 % 1012,2 hPa 0,0 l/m 0 min 0 min 11 W/m 0,0 km/h (0 Bft) 100,00 %
19.06.2023 21:34 25,7 C 23,9 C 20,6 C 61 % 1012,1 hPa 0,0 l/m 0 min 0 min 10 W/m 0,0 km/h (0 Bft) 97,87 %
19.06.2023 21:36 25,6 C 23,3 C 20,6 C 62 % 1012,2 hPa 0,0 l/m 0 min 0 min 9 W/m 0,0 km/h (0 Bft) 97,87 %
19.06.2023 21:38 25,6 C 23,3 C 20,6 C 61 % 1012,2 hPa 0,0 l/m 0 min 0 min 8 W/m 0,0 km/h (0 Bft) 100,00 %
19.06.2023 21:40 25,4 C 23,3 C 20,6 C 62 % 1012,2 hPa 0,0 l/m 0 min 0 min 7 W/m 0,0 km/h (0 Bft) 100,00 %
19.06.2023 21:42 25,4 C 23,3 C 20,6 C 62 % 1012,2 hPa 0,0 l/m 0 min 0 min 6 W/m 0,0 km/h (0 Bft) 97,87 %
19.06.2023 21:44 25,3 C 23,3 C 20,6 C 63 % 1012,2 hPa 0,0 l/m 0 min 0 min 5 W/m 0,0 km/h (0 Bft) 100,00 %
19.06.2023 21:46 25,3 C 23,3 C 20,6 C 63 % 1012,2 hPa 0,0 l/m 0 min 0 min 3 W/m 0,0 km/h (0 Bft) 100,00 %
19.06.2023 21:48 25,2 C 23,3 C 20,0 C 63 % 1012,2 hPa 0,0 l/m 0 min 0 min 0 W/m 0,0 km/h (0 Bft) 100,00 %
19.06.2023 21:50 25,2 C 23,3 C 20,0 C 63 % 1012,2 hPa 0,0 l/m 0 min 0 min 0 W/m 3,2 km/h (1 Bft) 97,87 %
19.06.2023 21:52 25,2 C 23,3 C 20,0 C 61 % 1012,2 hPa 0,0 l/m 0 min 0 min 0 W/m 0,0 km/h (0 Bft) 97,87 %
19.06.2023 21:54 25,1 C 23,3 C 20,0 C 63 % 1012,2 hPa 0,0 l/m 0 min 0 min 0 W/m 3,2 km/h (1 Bft) 97,87 %
19.06.2023 21:56 25,0 C 23,3 C 20,0 C 62 % 1012,2 hPa 0,0 l/m 0 min 0 min 0 W/m 0,0 km/h (0 Bft) 97,83 %
19.06.2023 21:58 24,9 C 23,3 C 20,0 C 63 % 1012,3 hPa 0,0 l/m 0 min 0 min 0 W/m 0,0 km/h (0 Bft) 97,87 %
19.06.2023 22:00 24,9 C 23,3 C 20,0 C 63 % 1012,3 hPa 0,0 l/m 0 min 0 min 0 W/m 0,0 km/h (0 Bft) 97,87 %
19.06.2023 22:02 24,9 C 22,8 C 20,0 C 64 % 1012,3 hPa 0,0 l/m 0 min 0 min 0 W/m 0,0 km/h (0 Bft) 97,87 %
19.06.2023 22:04 24,8 C 22,8 C 20,0 C 63 % 1012,4 hPa 0,0 l/m 0 min 0 min 0 W/m 0,0 km/h (0 Bft) 95,74 %
19.06.2023 22:06 24,8 C 22,8 C 20,0 C 64 % 1012,4 hPa 0,0 l/m 0 min 0 min 0 W/m 0,0 km/h (0 Bft) 94,92 %
19.06.2023 22:08 24,7 C 22,8 C 20,0 C 64 % 1012,4 hPa 0,0 l/m 0 min 0 min 0 W/m 0,0 km/h (0 Bft) 100,00 %
19.06.2023 22:10 24,7 C 22,8 C 20,0 C 63 % 1012,4 hPa 0,0 l/m 0 min 0 min 0 W/m 0,0 km/h (0 Bft) 97,83 %
19.06.2023 22:12 24,7 C 22,8 C 20,0 C 64 % 1012,5 hPa 0,0 l/m 0 min 0 min 0 W/m 0,0 km/h (0 Bft) 95,74 %
19.06.2023 22:14 24,6 C 22,8 C 20,0 C 64 % 1012,5 hPa 0,0 l/m 0 min 0 min 0 W/m 0,0 km/h (0 Bft) 97,87 %
19.06.2023 22:16 24,6 C 22,8 C 20,0 C 65 % 1012,5 hPa 0,0 l/m 0 min 0 min 0 W/m 0,0 km/h (0 Bft) 93,62 %
19.06.2023 22:18 24,6 C 22,8 C 20,0 C 65 % 1012,5 hPa 0,0 l/m 0 min 0 min 0 W/m 0,0 km/h (0 Bft) 93,62 %
19.06.2023 22:20 24,6 C 22,8 C 20,0 C 65 % 1012,5 hPa 0,0 l/m 0 min 0 min 0 W/m 0,0 km/h (0 Bft) 93,62 %
19.06.2023 22:22 24,5 C 22,8 C 20,0 C 65 % 1012,5 hPa 0,0 l/m 0 min 0 min 0 W/m 0,0 km/h (0 Bft) 95,65 %
19.06.2023 22:24 24,5 C 22,8 C 19,4 C 65 % 1012,5 hPa 0,0 l/m 0 min 0 min 0 W/m 0,0 km/h (0 Bft) 93,62 %
19.06.2023 22:26 24,4 C 22,8 C 19,4 C 65 % 1012,5 hPa 0,0 l/m 0 min 0 min 0 W/m 0,0 km/h (0 Bft) 95,74 %
19.06.2023 22:28 24,4 C 22,8 C 19,4 C 66 % 1012,5 hPa 0,0 l/m 0 min 0 min 0 W/m 0,0 km/h (0 Bft) 95,74 %
19.06.2023 22:30 24,4 C 22,8 C 19,4 C 66 % 1012,5 hPa 0,0 l/m 0 min 0 min 0 W/m 0,0 km/h (0 Bft) 95,74 %
19.06.2023 22:32 24,3 C 22,8 C 19,4 C 65 % 1012,6 hPa 0,0 l/m 0 min 0 min 0 W/m 0,0 km/h (0 Bft) 95,74 %
19.06.2023 22:34 24,3 C 22,8 C 19,4 C 65 % 1012,5 hPa 0,0 l/m 0 min 0 min 0 W/m 0,0 km/h (0 Bft) 95,74 %
19.06.2023 22:36 24,3 C 22,8 C 19,4 C 66 % 1012,5 hPa 0,0 l/m 0 min 0 min 0 W/m 0,0 km/h (0 Bft) 95,65 %
19.06.2023 22:38 24,3 C 22,8 C 19,4 C 67 % 1012,6 hPa 0,0 l/m 0 min 0 min 0 W/m 0,0 km/h (0 Bft) 93,62 %
19.06.2023 22:40 24,2 C 22,8 C 19,4 C 67 % 1012,6 hPa 0,0 l/m 0 min 0 min 0 W/m 0,0 km/h (0 Bft) 95,74 %
19.06.2023 22:42 24,2 C 22,8 C 19,4 C 67 % 1012,5 hPa 0,0 l/m 0 min 0 min 0 W/m 0,0 km/h (0 Bft) 97,87 %
19.06.2023 22:44 24,2 C 22,8 C 19,4 C 67 % 1012,5 hPa 0,0 l/m 0 min 0 min 0 W/m 0,0 km/h (0 Bft) 97,87 %
19.06.2023 22:46 24,1 C 22,8 C 19,4 C 67 % 1012,5 hPa 0,0 l/m 0 min 0 min 0 W/m 0,0 km/h (0 Bft) 95,74 %
19.06.2023 22:48 24,1 C 22,8 C 19,4 C 67 % 1012,4 hPa 0,0 l/m 0 min 0 min 0 W/m 0,0 km/h (0 Bft) 97,83 %
19.06.2023 22:50 24,0 C 22,8 C 19,4 C 65 % 1012,5 hPa 0,0 l/m 0 min 0 min 0 W/m 0,0 km/h (0 Bft) 96,00 %
19.06.2023 22:52 23,9 C 22,8 C 19,4 C 65 % 1012,5 hPa 0,0 l/m 0 min 0 min 0 W/m 0,0 km/h (0 Bft) 97,87 %
19.06.2023 22:54 23,9 C 22,8 C 19,4 C 65 % 1012,5 hPa 0,0 l/m 0 min 0 min 0 W/m 0,0 km/h (0 Bft) 97,83 %
19.06.2023 22:56 23,9 C 22,8 C 19,4 C 65 % 1012,5 hPa 0,0 l/m 0 min 0 min 0 W/m 3,2 km/h (1 Bft) 97,87 %
19.06.2023 22:58 23,9 C 22,8 C 19,4 C 65 % 1012,5 hPa 0,0 l/m 0 min 0 min 0 W/m 0,0 km/h (0 Bft) 97,87 %
19.06.2023 23:00 23,8 C 22,8 C 19,4 C 64 % 1012,5 hPa 0,0 l/m 0 min 0 min 0 W/m 0,0 km/h (0 Bft) 100,00 %
19.06.2023 23:02 23,8 C 22,8 C 19,4 C 64 % 1012,6 hPa 0,0 l/m 0 min 0 min 0 W/m 0,0 km/h (0 Bft) 95,74 %
19.06.2023 23:04 23,8 C 22,8 C 19,4 C 65 % 1012,5 hPa 0,0 l/m 0 min 0 min 0 W/m 0,0 km/h (0 Bft) 95,92 %
19.06.2023 23:06 23,8 C 22,8 C 19,4 C 65 % 1012,5 hPa 0,0 l/m 0 min 0 min 0 W/m 0,0 km/h (0 Bft) 96,08 %
19.06.2023 23:08 23,8 C 22,8 C 19,4 C 65 % 1012,5 hPa 0,0 l/m 0 min 0 min 0 W/m 3,2 km/h (1 Bft) 97,14 %
19.06.2023 23:10 23,8 C 22,8 C 19,4 C 65 % 1012,5 hPa 0,0 l/m 0 min 0 min 0 W/m 0,0 km/h (0 Bft) 97,87 %
19.06.2023 23:12 23,7 C 22,8 C 19,4 C 65 % 1012,5 hPa 0,0 l/m 0 min 0 min 0 W/m 0,0 km/h (0 Bft) 97,87 %
19.06.2023 23:14 23,7 C 22,8 C 19,4 C 66 % 1012,4 hPa 0,0 l/m 0 min 0 min 0 W/m 3,2 km/h (1 Bft) 97,83 %
19.06.2023 23:16 23,7 C 22,8 C 19,4 C 65 % 1012,5 hPa 0,0 l/m 0 min 0 min 0 W/m 0,0 km/h (0 Bft) 97,87 %
19.06.2023 23:18 23,7 C 22,8 C 19,4 C 66 % 1012,5 hPa 0,0 l/m 0 min 0 min 0 W/m 0,0 km/h (0 Bft) 97,87 %
19.06.2023 23:20 23,7 C 22,8 C 19,4 C 65 % 1012,4 hPa 0,0 l/m 0 min 0 min 0 W/m 0,0 km/h (0 Bft) 96,00 %
19.06.2023 23:22 23,7 C 22,8 C 19,4 C 66 % 1012,4 hPa 0,0 l/m 0 min 0 min 0 W/m 3,2 km/h (1 Bft) 97,83 %
19.06.2023 23:24 23,7 C 22,8 C 19,4 C 67 % 1012,4 hPa 0,0 l/m 0 min 0 min 0 W/m 0,0 km/h (0 Bft) 95,74 %
19.06.2023 23:26 23,7 C 22,8 C 19,4 C 66 % 1012,4 hPa 0,0 l/m 0 min 0 min 0 W/m 0,0 km/h (0 Bft) 97,87 %
19.06.2023 23:28 23,7 C 22,8 C 19,4 C 65 % 1012,4 hPa 0,0 l/m 0 min 0 min 0 W/m 0,0 km/h (0 Bft) 97,87 %
19.06.2023 23:30 23,6 C 22,8 C 19,4 C 64 % 1012,4 hPa 0,0 l/m 0 min 0 min 0 W/m 3,2 km/h (1 Bft) 97,87 %
19.06.2023 23:32 23,6 C 22,8 C 19,4 C 64 % 1012,4 hPa 0,0 l/m 0 min 0 min 0 W/m 3,2 km/h (1 Bft) 95,74 %
19.06.2023 23:34 23,6 C 22,8 C 19,4 C 64 % 1012,3 hPa 0,0 l/m 0 min 0 min 0 W/m 0,0 km/h (0 Bft) 100,00 %
19.06.2023 23:36 23,6 C 22,8 C 19,4 C 63 % 1012,3 hPa 0,0 l/m 0 min 0 min 0 W/m 0,0 km/h (0 Bft) 97,96 %
19.06.2023 23:38 23,6 C 22,8 C 19,4 C 65 % 1012,3 hPa 0,0 l/m 0 min 0 min 0 W/m 0,0 km/h (0 Bft) 100,00 %
19.06.2023 23:40 23,6 C 22,8 C 19,4 C 65 % 1012,3 hPa 0,0 l/m 0 min 0 min 0 W/m 0,0 km/h (0 Bft) 100,00 %
19.06.2023 23:42 23,6 C 22,8 C 19,4 C 65 % 1012,2 hPa 0,0 l/m 0 min 0 min 0 W/m 0,0 km/h (0 Bft) 100,00 %
19.06.2023 23:44 23,6 C 22,8 C 19,4 C 65 % 1012,2 hPa 0,0 l/m 0 min 0 min 0 W/m 0,0 km/h (0 Bft) 100,00 %
19.06.2023 23:46 23,6 C 22,8 C 19,4 C 64 % 1012,2 hPa 0,0 l/m 0 min 0 min 0 W/m 0,0 km/h (0 Bft) 100,00 %
19.06.2023 23:48 23,6 C 22,8 C 19,4 C 65 % 1012,2 hPa 0,0 l/m 0 min 0 min 0 W/m 0,0 km/h (0 Bft) 100,00 %
19.06.2023 23:50 23,6 C 22,8 C 19,4 C 65 % 1012,2 hPa 0,0 l/m 0 min 0 min 0 W/m 0,0 km/h (0 Bft) 97,87 %
19.06.2023 23:52 23,5 C 22,8 C 19,4 C 64 % 1012,2 hPa 0,0 l/m 0 min 0 min 0 W/m 0,0 km/h (0 Bft) 100,00 %
19.06.2023 23:54 23,6 C 22,8 C 19,4 C 64 % 1012,2 hPa 0,0 l/m 0 min 0 min 0 W/m 0,0 km/h (0 Bft) 100,00 %
19.06.2023 23:56 23,5 C 22,8 C 19,4 C 64 % 1012,2 hPa 0,0 l/m 0 min 0 min 0 W/m 3,2 km/h (1 Bft) 100,00 %
19.06.2023 23:58 23,5 C 22,8 C 19,4 C 64 % 1012,2 hPa 0,0 l/m 0 min 0 min 0 W/m 6,4 km/h (2 Bft) 100,00 %
_ Min-Zeit 06:30 05:54 06:26 18:50 01:00 - - - - 03:32 13:25
Minimum _ 19,8 C 18,9 C 15,6 C 45 % 1009,1 hPa - - - - 0,0 km/h (0 Bft) 0,88 %
_ Max-Zeit 19:00 18:14 12:44 09:40 12:00 00:00 13:24 00:00 14:00 00:04 00:04
Maximum _ 30,1 C 34,4 C 31,7 C 88 % 1013,6 hPa 0,0 l/m 5 min 0 min 998 W/m 48,3 km/h
SW (6 Bft)
100,00 %
Durchschnitt _ 24,6 C 25,2 C 21,0 C 66 % 1011,9 hPa #0,0 l/m #9:05 h #0 min. 415 W/m 9,8 km/h (2 Bft) 97,09 %
© 2023 W. Hausmann